Observation data for Lake McClellan 2NW on 11/16/2019      Previous  Date       Current Mesonet Observations  Soil Data  Daily Summary Page  Observations in Plain Language
KMC5 160600Z 20011KT 07/M02 A3016 RMK A01 T00671019  RH  054%=      5-min Rain = 0
KMC5 160601Z 20010KT 07/M02 A3016 RMK A01 T00691019  RH  053%=      5-min Rain = 0
KMC5 160602Z 20011KT 07/M02 A3016 RMK A01 T00691019  RH  053%=      5-min Rain = 0
KMC5 160603Z 20011KT 07/M02 A3016 RMK A01 T00691019  RH  053%=      5-min Rain = 0
KMC5 160604Z 20012KT 07/M02 A3016 RMK A01 T00691019  RH  054%=      5-min Rain = 0
KMC5 160605Z 20011KT 07/M02 A3016 RMK A01 T00691019  RH  053%=      5-min Rain = 0
KMC5 160606Z 20011KT 07/M02 A3016 RMK A01 T00691019  RH  053%=      5-min Rain = 0
KMC5 160607Z 20012KT 07/M02 A3016 RMK A01 T00691019  RH  053%=      5-min Rain = 0
KMC5 160608Z 19012KT 07/M02 A3016 RMK A01 T00701018  RH  053%=      5-min Rain = 0
KMC5 160609Z 20011KT 07/M02 A3016 RMK A01 T00701019  RH  053%=      5-min Rain = 0
KMC5 160610Z 20011KT 07/M02 A3016 RMK A01 T00711019  RH  053%=      5-min Rain = 0
KMC5 160611Z 19010KT 07/M02 A3016 RMK A01 T00701019  RH  053%=      5-min Rain = 0
KMC5 160612Z 19010KT 07/M02 A3016 RMK A01 T00691019  RH  053%=      5-min Rain = 0
KMC5 160613Z 20010KT 07/M02 A3016 RMK A01 T00681020  RH  054%=      5-min Rain = 0
KMC5 160614Z 19010KT 07/M02 A3015 RMK A01 T00671019  RH  054%=      5-min Rain = 0
KMC5 160615Z 19010KT 07/M02 A3015 RMK A01 T00671020  RH  054%=      5-min Rain = 0
KMC5 160616Z 19010KT 07/M02 A3015 RMK A01 T00651020  RH  054%=      5-min Rain = 0
KMC5 160617Z 19011KT 07/M02 A3015 RMK A01 T00651020  RH  055%=      5-min Rain = 0
KMC5 160618Z 19011KT 07/M02 A3015 RMK A01 T00651019  RH  055%=      5-min Rain = 0
KMC5 160619Z 20011KT 07/M02 A3015 RMK A01 T00651019  RH  055%=      5-min Rain = 0
KMC5 160620Z 20011KT 07/M02 A3015 RMK A01 T00651019  RH  055%=      5-min Rain = 0
KMC5 160621Z 20011KT 07/M02 A3015 RMK A01 T00651020  RH  055%=      5-min Rain = 0
KMC5 160622Z 19011KT 07/M02 A3015 RMK A01 T00651019  RH  055%=      5-min Rain = 0
KMC5 160623Z 19011KT 07/M02 A3015 RMK A01 T00651020  RH  055%=      5-min Rain = 0
KMC5 160624Z 20011KT 07/M02 A3015 RMK A01 T00651020  RH  055%=      5-min Rain = 0
KMC5 160625Z 20011KT 07/M02 A3015 RMK A01 T00651020  RH  055%=      5-min Rain = 0
KMC5 160626Z 20011KT 07/M02 A3015 RMK A01 T00651019  RH  055%=      5-min Rain = 0
KMC5 160627Z 20010KT 07/M02 A3015 RMK A01 T00661019  RH  055%=      5-min Rain = 0
KMC5 160628Z 20011KT 07/M02 A3015 RMK A01 T00661019  RH  055%=      5-min Rain = 0
KMC5 160629Z 20011KT 07/M02 A3015 RMK A01 T00661020  RH  055%=      5-min Rain = 0
KMC5 160630Z 20011KT 07/M02 A3015 RMK A01 T00661020  RH  055%=      5-min Rain = 0
KMC5 160631Z 20011KT 07/M02 A3015 RMK A01 T00651020  RH  055%=      5-min Rain = 0
KMC5 160632Z 19012KT 07/M02 A3015 RMK A01 T00661019  RH  055%=      5-min Rain = 0
KMC5 160633Z 20012KT 07/M02 A3015 RMK A01 T00661019  RH  054%=      5-min Rain = 0
KMC5 160634Z 20011KT 07/M02 A3015 RMK A01 T00671019  RH  054%=      5-min Rain = 0
KMC5 160635Z 20012KT 07/M02 A3015 RMK A01 T00671019  RH  054%=      5-min Rain = 0
KMC5 160636Z 20012KT 07/M02 A3015 RMK A01 T00671020  RH  054%=      5-min Rain = 0
KMC5 160637Z 20012KT 07/M02 A3015 RMK A01 T00671020  RH  054%=      5-min Rain = 0
KMC5 160638Z 19012KT 07/M02 A3015 RMK A01 T00671019  RH  054%=      5-min Rain = 0
KMC5 160639Z 19012KT 07/M02 A3015 RMK A01 T00671020  RH  054%=      5-min Rain = 0
KMC5 160640Z 19012KT 07/M02 A3015 RMK A01 T00671019  RH  054%=      5-min Rain = 0
KMC5 160641Z 20012KT 07/M02 A3015 RMK A01 T00671019  RH  054%=      5-min Rain = 0
KMC5 160642Z 20012KT 07/M02 A3015 RMK A01 T00671020  RH  054%=      5-min Rain = 0
KMC5 160643Z 20013KT 07/M02 A3015 RMK A01 T00681019  RH  054%=      5-min Rain = 0
KMC5 160644Z 20011KT 07/M02 A3015 RMK A01 T00681019  RH  054%=      5-min Rain = 0
KMC5 160645Z 19011KT 07/M02 A3015 RMK A01 T00671020  RH  054%=      5-min Rain = 0
KMC5 160646Z 20011KT 07/M02 A3015 RMK A01 T00671020  RH  054%=      5-min Rain = 0
KMC5 160647Z 20011KT 07/M02 A3015 RMK A01 T00661020  RH  054%=      5-min Rain = 0
KMC5 160648Z 20012KT 07/M02 A3015 RMK A01 T00661020  RH  054%=      5-min Rain = 0
KMC5 160649Z 20011KT 07/M02 A3015 RMK A01 T00661019  RH  054%=      5-min Rain = 0
KMC5 160650Z 20011KT 07/M02 A3015 RMK A01 T00661020  RH  054%=      5-min Rain = 0
KMC5 160651Z 20011KT 07/M02 A3015 RMK A01 T00661020  RH  054%=      5-min Rain = 0
KMC5 160652Z 20011KT 07/M02 A3015 RMK A01 T00651020  RH  055%=      5-min Rain = 0
KMC5 160653Z 20011KT 06/M02 A3015 RMK A01 T00641020  RH  055%=      5-min Rain = 0
KMC5 160654Z 20011KT 06/M02 A3015 RMK A01 T00641020  RH  055%=      5-min Rain = 0
KMC5 160655Z 20011KT 06/M02 A3014 RMK A01 T00631020  RH  055%=      5-min Rain = 0
KMC5 160656Z 20011KT 06/M02 A3014 RMK A01 T00631020  RH  055%=      5-min Rain = 0
KMC5 160657Z 20011KT 06/M02 A3014 RMK A01 T00631020  RH  055%=      5-min Rain = 0
KMC5 160658Z 20011KT 06/M02 A3014 RMK A01 T00631020  RH  055%=      5-min Rain = 0
KMC5 160659Z 20011KT 06/M02 A3014 RMK A01 T00631020  RH  055%=      5-min Rain = 0
KMC5 160700Z 20011KT 06/M02 A3014 RMK A01 T00631020  RH  055%=      5-min Rain = 0
KMC5 160701Z 20010KT 06/M02 A3014 RMK A01 T00631020  RH  055%=      5-min Rain = 0
KMC5 160702Z 20011KT 06/M02 A3014 RMK A01 T00631020  RH  055%=      5-min Rain = 0
KMC5 160703Z 20010KT 06/M02 A3014 RMK A01 T00621021  RH  055%=      5-min Rain = 0
KMC5 160704Z 20011KT 06/M02 A3014 RMK A01 T00611021  RH  056%=      5-min Rain = 0
KMC5 160705Z 20012KT 06/M02 A3014 RMK A01 T00611020  RH  056%=      5-min Rain = 0
KMC5 160706Z 20011KT 06/M02 A3014 RMK A01 T00611020  RH  056%=      5-min Rain = 0
KMC5 160707Z 20011KT 06/M02 A3014 RMK A01 T00611020  RH  056%=      5-min Rain = 0
KMC5 160708Z 20010KT 06/M02 A3014 RMK A01 T00601021  RH  056%=      5-min Rain = 0
KMC5 160709Z 20010KT 06/M02 A3014 RMK A01 T00601020  RH  056%=      5-min Rain = 0
KMC5 160710Z 20010KT 06/M02 A3014 RMK A01 T00601021  RH  056%=      5-min Rain = 0
KMC5 160711Z 20009KT 06/M02 A3014 RMK A01 T00601020  RH  056%=      5-min Rain = 0
KMC5 160712Z 20009KT 06/M02 A3014 RMK A01 T00601020  RH  056%=      5-min Rain = 0
KMC5 160713Z 20010KT 06/M02 A3014 RMK A01 T00601021  RH  056%=      5-min Rain = 0
KMC5 160714Z 20010KT 06/M02 A3014 RMK A01 T00591021  RH  056%=      5-min Rain = 0
KMC5 160715Z 20009KT 06/M02 A3014 RMK A01 T00581021  RH  057%=      5-min Rain = 0
KMC5 160716Z 20010KT 06/M02 A3014 RMK A01 T00581021  RH  057%=      5-min Rain = 0
KMC5 160717Z 20010KT 06/M02 A3014 RMK A01 T00581021  RH  057%=      5-min Rain = 0
KMC5 160718Z 20010KT 06/M02 A3014 RMK A01 T00581021  RH  057%=      5-min Rain = 0
KMC5 160719Z 20010KT 06/M02 A3014 RMK A01 T00581021  RH  057%=      5-min Rain = 0
KMC5 160720Z 20010KT 06/M02 A3014 RMK A01 T00571021  RH  057%=      5-min Rain = 0
KMC5 160721Z 20010KT 06/M02 A3014 RMK A01 T00571021  RH  057%=      5-min Rain = 0
KMC5 160722Z 20010KT 06/M02 A3014 RMK A01 T00581021  RH  057%=      5-min Rain = 0
KMC5 160723Z 20010KT 06/M02 A3014 RMK A01 T00591021  RH  057%=      5-min Rain = 0
KMC5 160724Z 20010KT 06/M02 A3014 RMK A01 T00591021  RH  057%=      5-min Rain = 0
KMC5 160725Z 19011KT 06/M02 A3014 RMK A01 T00601021  RH  056%=      5-min Rain = 0
KMC5 160726Z 20011KT 06/M02 A3014 RMK A01 T00601020  RH  056%=      5-min Rain = 0
KMC5 160727Z 20010KT 06/M02 A3014 RMK A01 T00611020  RH  056%=      5-min Rain = 0
KMC5 160728Z 19011KT 06/M02 A3014 RMK A01 T00621020  RH  055%=      5-min Rain = 0
KMC5 160729Z 19011KT 06/M02 A3014 RMK A01 T00621020  RH  055%=      5-min Rain = 0
KMC5 160730Z 19011KT 06/M02 A3013 RMK A01 T00621021  RH  055%=      5-min Rain = 0
KMC5 160731Z 19010KT 06/M02 A3013 RMK A01 T00621020  RH  055%=      5-min Rain = 0
KMC5 160732Z 20011KT 06/M02 A3013 RMK A01 T00621021  RH  055%=      5-min Rain = 0
KMC5 160733Z 20011KT 06/M02 A3013 RMK A01 T00621020  RH  056%=      5-min Rain = 0
KMC5 160734Z 19011KT 06/M02 A3013 RMK A01 T00621021  RH  055%=      5-min Rain = 0
KMC5 160735Z 19010KT 06/M02 A3013 RMK A01 T00631021  RH  055%=      5-min Rain = 0
KMC5 160736Z 19010KT 06/M02 A3013 RMK A01 T00621020  RH  055%=      5-min Rain = 0
KMC5 160737Z 19011KT 06/M02 A3013 RMK A01 T00621021  RH  055%=      5-min Rain = 0
KMC5 160738Z 19010KT 06/M02 A3013 RMK A01 T00621021  RH  055%=      5-min Rain = 0
KMC5 160739Z 19010KT 06/M02 A3013 RMK A01 T00621021  RH  055%=      5-min Rain = 0
KMC5 160740Z 19009KT 06/M02 A3013 RMK A01 T00611021  RH  056%=      5-min Rain = 0
KMC5 160741Z 19009KT 06/M02 A3013 RMK A01 T00601021  RH  056%=      5-min Rain = 0
KMC5 160742Z 19009KT 06/M02 A3013 RMK A01 T00591022  RH  056%=      5-min Rain = 0
KMC5 160743Z 19009KT 06/M02 A3013 RMK A01 T00571022  RH  057%=      5-min Rain = 0
KMC5 160744Z 20009KT 06/M02 A3013 RMK A01 T00561022  RH  057%=      5-min Rain = 0
KMC5 160745Z 19008KT 06/M02 A3013 RMK A01 T00551022  RH  058%=      5-min Rain = 0
KMC5 160746Z 19009KT 05/M02 A3013 RMK A01 T00541022  RH  058%=      5-min Rain = 0
KMC5 160747Z 19009KT 05/M02 A3013 RMK A01 T00541022  RH  058%=      5-min Rain = 0
KMC5 160748Z 19008KT 05/M02 A3013 RMK A01 T00541022  RH  058%=      5-min Rain = 0
KMC5 160749Z 19009KT 05/M02 A3013 RMK A01 T00541022  RH  058%=      5-min Rain = 0
KMC5 160750Z 19009KT 05/M02 A3013 RMK A01 T00541022  RH  058%=      5-min Rain = 0
KMC5 160751Z 20009KT 06/M02 A3013 RMK A01 T00551021  RH  058%=      5-min Rain = 0
KMC5 160752Z 20008KT 06/M02 A3013 RMK A01 T00561021  RH  058%=      5-min Rain = 0
KMC5 160753Z 20008KT 06/M02 A3013 RMK A01 T00551022  RH  058%=      5-min Rain = 0
KMC5 160754Z 20008KT 05/M02 A3013 RMK A01 T00541022  RH  058%=      5-min Rain = 0
KMC5 160755Z 20008KT 05/M02 A3013 RMK A01 T00541022  RH  058%=      5-min Rain = 0
KMC5 160756Z 20009KT 05/M02 A3013 RMK A01 T00541022  RH  058%=      5-min Rain = 0
KMC5 160757Z 19008KT 06/M02 A3013 RMK A01 T00551022  RH  058%=      5-min Rain = 0
KMC5 160758Z 19008KT 06/M02 A3013 RMK A01 T00551021  RH  058%=      5-min Rain = 0
KMC5 160759Z 19008KT 06/M02 A3013 RMK A01 T00551022  RH  058%=      5-min Rain = 0
KMC5 160800Z 20008KT 06/M02 A3013 RMK A01 T00551022  RH  058%=      5-min Rain = 0
KMC5 160801Z 20008KT 06/M02 A3013 RMK A01 T00551021  RH  058%=      5-min Rain = 0
KMC5 160802Z 19007KT 06/M02 A3013 RMK A01 T00551022  RH  058%=      5-min Rain = 0
KMC5 160803Z 20007KT 06/M02 A3013 RMK A01 T00551022  RH  058%=      5-min Rain = 0
KMC5 160804Z 20007KT 06/M02 A3013 RMK A01 T00551022  RH  058%=      5-min Rain = 0
KMC5 160805Z 20007KT 05/M02 A3013 RMK A01 T00541022  RH  058%=      5-min Rain = 0
KMC5 160806Z 20007KT 06/M02 A3013 RMK A01 T00561021  RH  058%=      5-min Rain = 0
KMC5 160807Z 20007KT 06/M02 A3013 RMK A01 T00571021  RH  057%=      5-min Rain = 0
KMC5 160808Z 21008KT 06/M02 A3013 RMK A01 T00571021  RH  057%=      5-min Rain = 0
KMC5 160809Z 20007KT 06/M02 A3013 RMK A01 T00571022  RH  057%=      5-min Rain = 0
KMC5 160810Z 20007KT 06/M02 A3013 RMK A01 T00571022  RH  057%=      5-min Rain = 0
KMC5 160811Z 20006KT 06/M02 A3013 RMK A01 T00571022  RH  057%=      5-min Rain = 0
KMC5 160812Z 20007KT 06/M02 A3013 RMK A01 T00571022  RH  057%=      5-min Rain = 0
KMC5 160813Z 20007KT 06/M02 A3013 RMK A01 T00571022  RH  057%=      5-min Rain = 0
KMC5 160814Z 20008KT 06/M02 A3013 RMK A01 T00581021  RH  057%=      5-min Rain = 0
KMC5 160815Z 20008KT 06/M02 A3013 RMK A01 T00591021  RH  056%=      5-min Rain = 0
KMC5 160816Z 20008KT 06/M02 A3013 RMK A01 T00601021  RH  056%=      5-min Rain = 0
KMC5 160817Z 20008KT 06/M02 A3013 RMK A01 T00611021  RH  056%=      5-min Rain = 0
KMC5 160818Z 20008KT 06/M02 A3013 RMK A01 T00611021  RH  056%=      5-min Rain = 0
KMC5 160819Z 20008KT 06/M02 A3013 RMK A01 T00611021  RH  056%=      5-min Rain = 0
KMC5 160820Z 19008KT 06/M02 A3013 RMK A01 T00601021  RH  056%=      5-min Rain = 0
KMC5 160821Z 19008KT 06/M02 A3013 RMK A01 T00591022  RH  056%=      5-min Rain = 0
KMC5 160822Z 19007KT 06/M02 A3013 RMK A01 T00591022  RH  056%=      5-min Rain = 0
KMC5 160823Z 19007KT 06/M02 A3013 RMK A01 T00581022  RH  057%=      5-min Rain = 0
KMC5 160824Z 19008KT 06/M02 A3013 RMK A01 T00571022  RH  057%=      5-min Rain = 0
KMC5 160825Z 19008KT 06/M02 A3013 RMK A01 T00571022  RH  057%=      5-min Rain = 0
KMC5 160826Z 19009KT 06/M02 A3013 RMK A01 T00581021  RH  057%=      5-min Rain = 0
KMC5 160827Z 19010KT 06/M02 A3013 RMK A01 T00571022  RH  057%=      5-min Rain = 0
KMC5 160828Z 20008KT 06/M02 A3013 RMK A01 T00591021  RH  057%=      5-min Rain = 0
KMC5 160829Z 20008KT 06/M02 A3013 RMK A01 T00591021  RH  056%=      5-min Rain = 0
KMC5 160830Z 20009KT 06/M02 A3013 RMK A01 T00591021  RH  056%=      5-min Rain = 0
KMC5 160831Z 20008KT 06/M02 A3013 RMK A01 T00591021  RH  057%=      5-min Rain = 0
KMC5 160832Z 20008KT 06/M02 A3013 RMK A01 T00581022  RH  057%=      5-min Rain = 0
KMC5 160833Z 20008KT 06/M02 A3013 RMK A01 T00581021  RH  057%=      5-min Rain = 0
KMC5 160834Z 20008KT 06/M02 A3013 RMK A01 T00581021  RH  057%=      5-min Rain = 0
KMC5 160835Z 20008KT 06/M02 A3013 RMK A01 T00571021  RH  057%=      5-min Rain = 0
KMC5 160836Z 20009KT 06/M02 A3013 RMK A01 T00561022  RH  057%=      5-min Rain = 0
KMC5 160837Z 20008KT 06/M02 A3013 RMK A01 T00561022  RH  057%=      5-min Rain = 0
KMC5 160838Z 20008KT 06/M02 A3013 RMK A01 T00561022  RH  057%=      5-min Rain = 0
KMC5 160839Z 20008KT 06/M02 A3013 RMK A01 T00551022  RH  058%=      5-min Rain = 0
KMC5 160840Z 20008KT 06/M02 A3013 RMK A01 T00551022  RH  058%=      5-min Rain = 0
KMC5 160841Z 19008KT 06/M02 A3013 RMK A01 T00551022  RH  058%=      5-min Rain = 0
KMC5 160842Z 20008KT 06/M02 A3013 RMK A01 T00561021  RH  057%=      5-min Rain = 0
KMC5 160843Z 20008KT 06/M02 A3013 RMK A01 T00571021  RH  057%=      5-min Rain = 0
KMC5 160844Z 20008KT 06/M02 A3013 RMK A01 T00571021  RH  057%=      5-min Rain = 0
KMC5 160845Z 20007KT 06/M02 A3013 RMK A01 T00571021  RH  057%=      5-min Rain = 0
KMC5 160846Z 20007KT 06/M02 A3013 RMK A01 T00571021  RH  057%=      5-min Rain = 0
KMC5 160847Z 20007KT 06/M02 A3013 RMK A01 T00561022  RH  057%=      5-min Rain = 0
KMC5 160848Z 20008KT 06/M02 A3013 RMK A01 T00561022  RH  057%=      5-min Rain = 0
KMC5 160849Z 20008KT 06/M02 A3013 RMK A01 T00561022  RH  057%=      5-min Rain = 0
KMC5 160850Z 20008KT 06/M02 A3013 RMK A01 T00571021  RH  057%=      5-min Rain = 0
KMC5 160851Z 20008KT 06/M02 A3013 RMK A01 T00581021  RH  057%=      5-min Rain = 0
KMC5 160852Z 20008KT 06/M02 A3013 RMK A01 T00591021  RH  057%=      5-min Rain = 0
KMC5 160853Z 20008KT 06/M02 A3013 RMK A01 T00591021  RH  056%=      5-min Rain = 0
KMC5 160854Z 20008KT 06/M02 A3013 RMK A01 T00581022  RH  056%=      5-min Rain = 0
KMC5 160855Z 19008KT 06/M02 A3013 RMK A01 T00581021  RH  057%=      5-min Rain = 0
KMC5 160856Z 19008KT 06/M02 A3013 RMK A01 T00581021  RH  057%=      5-min Rain = 0
KMC5 160857Z 20008KT 06/M02 A3013 RMK A01 T00581021  RH  057%=      5-min Rain = 0
KMC5 160858Z 19008KT 06/M02 A3013 RMK A01 T00581021  RH  057%=      5-min Rain = 0
KMC5 160859Z 19008KT 06/M02 A3013 RMK A01 T00581021  RH  057%=      5-min Rain = 0
KMC5 160900Z 20008KT 06/M02 A3013 RMK A01 T00581021  RH  057%=      5-min Rain = 0
KMC5 160901Z 20008KT 06/M02 A3013 RMK A01 T00581021  RH  057%=      5-min Rain = 0
KMC5 160902Z 20008KT 06/M02 A3013 RMK A01 T00571022  RH  057%=      5-min Rain = 0
KMC5 160903Z 20008KT 06/M02 A3013 RMK A01 T00581021  RH  057%=      5-min Rain = 0
KMC5 160904Z 20008KT 06/M02 A3013 RMK A01 T00581021  RH  057%=      5-min Rain = 0
KMC5 160905Z 20010KT 06/M02 A3013 RMK A01 T00591021  RH  057%=      5-min Rain = 0
KMC5 160906Z 20008KT 06/M02 A3013 RMK A01 T00621020  RH  056%=      5-min Rain = 0
KMC5 160907Z 20009KT 06/M02 A3013 RMK A01 T00621021  RH  055%=      5-min Rain = 0
KMC5 160908Z 20009KT 06/M02 A3013 RMK A01 T00631021  RH  055%=      5-min Rain = 0
KMC5 160909Z 20009KT 06/M02 A3013 RMK A01 T00631021  RH  055%=      5-min Rain = 0
KMC5 160910Z 20009KT 06/M02 A3013 RMK A01 T00621021  RH  055%=      5-min Rain = 0
KMC5 160911Z 20009KT 06/M02 A3013 RMK A01 T00631021  RH  055%=      5-min Rain = 0
KMC5 160912Z 20009KT 06/M02 A3013 RMK A01 T00641021  RH  055%=      5-min Rain = 0
KMC5 160913Z 20009KT 06/M02 A3013 RMK A01 T00641021  RH  054%=      5-min Rain = 0
KMC5 160914Z 20009KT 06/M02 A3013 RMK A01 T00641021  RH  055%=      5-min Rain = 0
KMC5 160915Z 20010KT 06/M02 A3012 RMK A01 T00631021  RH  055%=      5-min Rain = 0
KMC5 160916Z 20010KT 06/M02 A3012 RMK A01 T00631021  RH  055%=      5-min Rain = 0
KMC5 160917Z 20009KT 06/M02 A3012 RMK A01 T00641021  RH  055%=      5-min Rain = 0
KMC5 160918Z 20009KT 06/M02 A3012 RMK A01 T00631021  RH  055%=      5-min Rain = 0
KMC5 160919Z 20009KT 06/M02 A3012 RMK A01 T00621021  RH  055%=      5-min Rain = 0
KMC5 160920Z 20009KT 06/M02 A3012 RMK A01 T00621021  RH  055%=      5-min Rain = 0
KMC5 160921Z 20009KT 06/M02 A3012 RMK A01 T00611021  RH  055%=      5-min Rain = 0
KMC5 160922Z 20009KT 06/M02 A3012 RMK A01 T00611022  RH  056%=      5-min Rain = 0
KMC5 160923Z 20010KT 06/M02 A3012 RMK A01 T00611021  RH  056%=      5-min Rain = 0
KMC5 160924Z 20009KT 06/M02 A3012 RMK A01 T00601021  RH  056%=      5-min Rain = 0
KMC5 160925Z 20009KT 06/M02 A3012 RMK A01 T00601021  RH  056%=      5-min Rain = 0
KMC5 160926Z 21009KT 06/M02 A3012 RMK A01 T00591022  RH  056%=      5-min Rain = 0
KMC5 160927Z 20009KT 06/M02 A3012 RMK A01 T00581022  RH  056%=      5-min Rain = 0
KMC5 160928Z 20009KT 06/M02 A3012 RMK A01 T00581022  RH  057%=      5-min Rain = 0
KMC5 160929Z 20009KT 06/M02 A3012 RMK A01 T00581022  RH  057%=      5-min Rain = 0
KMC5 160930Z 20009KT 06/M02 A3012 RMK A01 T00581022  RH  057%=      5-min Rain = 0
KMC5 160931Z 20009KT 06/M02 A3012 RMK A01 T00571022  RH  057%=      5-min Rain = 0
KMC5 160932Z 20010KT 06/M02 A3012 RMK A01 T00571022  RH  057%=      5-min Rain = 0
KMC5 160933Z 20010KT 06/M02 A3012 RMK A01 T00561022  RH  057%=      5-min Rain = 0
KMC5 160934Z 20010KT 06/M02 A3012 RMK A01 T00571021  RH  057%=      5-min Rain = 0
KMC5 160935Z 20010KT 06/M02 A3012 RMK A01 T00571021  RH  057%=      5-min Rain = 0
KMC5 160936Z 21009KT 06/M02 A3012 RMK A01 T00581021  RH  057%=      5-min Rain = 0
KMC5 160937Z 21010KT 06/M02 A3012 RMK A01 T00581021  RH  057%=      5-min Rain = 0
KMC5 160938Z 21009KT 06/M02 A3012 RMK A01 T00581021  RH  057%=      5-min Rain = 0
KMC5 160939Z 21009KT 06/M02 A3012 RMK A01 T00571021  RH  057%=      5-min Rain = 0
KMC5 160940Z 21009KT 06/M02 A3012 RMK A01 T00561021  RH  057%=      5-min Rain = 0
KMC5 160941Z 21008KT 06/M02 A3012 RMK A01 T00561021  RH  058%=      5-min Rain = 0
KMC5 160942Z 20008KT 06/M02 A3012 RMK A01 T00561021  RH  058%=      5-min Rain = 0
KMC5 160943Z 21009KT 06/M02 A3012 RMK A01 T00551021  RH  058%=      5-min Rain = 0
KMC5 160944Z 21008KT 06/M02 A3012 RMK A01 T00551021  RH  058%=      5-min Rain = 0
KMC5 160945Z 21008KT 06/M02 A3012 RMK A01 T00551021  RH  058%=      5-min Rain = 0
KMC5 160946Z 21008KT 06/M02 A3012 RMK A01 T00571021  RH  057%=      5-min Rain = 0
KMC5 160947Z 21009KT 06/M02 A3012 RMK A01 T00561021  RH  057%=      5-min Rain = 0
KMC5 160948Z 21008KT 06/M02 A3012 RMK A01 T00571021  RH  057%=      5-min Rain = 0
KMC5 160949Z 21008KT 06/M02 A3011 RMK A01 T00571021  RH  057%=      5-min Rain = 0
KMC5 160950Z 21008KT 06/M02 A3011 RMK A01 T00571021  RH  057%=      5-min Rain = 0
KMC5 160951Z 21008KT 06/M02 A3011 RMK A01 T00561021  RH  057%=      5-min Rain = 0
KMC5 160952Z 21009KT 06/M02 A3011 RMK A01 T00561021  RH  058%=      5-min Rain = 0
KMC5 160953Z 21009KT 06/M02 A3011 RMK A01 T00561021  RH  058%=      5-min Rain = 0
KMC5 160954Z 21009KT 06/M02 A3011 RMK A01 T00571021  RH  057%=      5-min Rain = 0
KMC5 160955Z 21009KT 06/M02 A3011 RMK A01 T00581020  RH  057%=      5-min Rain = 0
KMC5 160956Z 21009KT 06/M02 A3011 RMK A01 T00581020  RH  057%=      5-min Rain = 0
KMC5 160957Z 21008KT 06/M02 A3011 RMK A01 T00581020  RH  057%=      5-min Rain = 0
KMC5 160958Z 21008KT 06/M02 A3011 RMK A01 T00581021  RH  057%=      5-min Rain = 0
KMC5 160959Z 21009KT 06/M02 A3011 RMK A01 T00581021  RH  057%=      5-min Rain = 0
KMC5 161000Z 21008KT 06/M02 A3011 RMK A01 T00591020  RH  057%=      5-min Rain = 0
KMC5 161001Z 21009KT 06/M02 A3011 RMK A01 T00591020  RH  057%=      5-min Rain = 0
KMC5 161002Z 21010KT 06/M02 A3011 RMK A01 T00601020  RH  057%=      5-min Rain = 0
KMC5 161003Z 21009KT 06/M02 A3011 RMK A01 T00601020  RH  056%=      5-min Rain = 0
KMC5 161004Z 21008KT 06/M02 A3011 RMK A01 T00601020  RH  056%=      5-min Rain = 0
KMC5 161005Z 21009KT 06/M02 A3011 RMK A01 T00601020  RH  056%=      5-min Rain = 0
KMC5 161006Z 21008KT 06/M02 A3011 RMK A01 T00601020  RH  056%=      5-min Rain = 0
KMC5 161007Z 21008KT 06/M02 A3011 RMK A01 T00591021  RH  056%=      5-min Rain = 0
KMC5 161008Z 21008KT 06/M02 A3011 RMK A01 T00581021  RH  057%=      5-min Rain = 0
KMC5 161009Z 21008KT 06/M02 A3011 RMK A01 T00581020  RH  057%=      5-min Rain = 0
KMC5 161010Z 21009KT 06/M02 A3011 RMK A01 T00581020  RH  057%=      5-min Rain = 0
KMC5 161011Z 21009KT 06/M02 A3011 RMK A01 T00581020  RH  057%=      5-min Rain = 0
KMC5 161012Z 21008KT 06/M02 A3011 RMK A01 T00591020  RH  057%=      5-min Rain = 0
KMC5 161013Z 21009KT 06/M02 A301 RMK A01 T00591020  RH  057%=      5-min Rain = 0
KMC5 161014Z 21008KT 06/M02 A301 RMK A01 T00591020  RH  057%=      5-min Rain = 0
KMC5 161015Z 21008KT 06/M02 A301 RMK A01 T00591020  RH  057%=      5-min Rain = 0
KMC5 161016Z 21007KT 06/M02 A301 RMK A01 T00581020  RH  057%=      5-min Rain = 0
KMC5 161017Z 21009KT 06/M02 A301 RMK A01 T00581020  RH  057%=      5-min Rain = 0
KMC5 161018Z 21008KT 06/M02 A301 RMK A01 T00581020  RH  057%=      5-min Rain = 0
KMC5 161019Z 21008KT 06/M02 A301 RMK A01 T00591020  RH  057%=      5-min Rain = 0
KMC5 161020Z 21008KT 06/M02 A301 RMK A01 T00591020  RH  057%=      5-min Rain = 0
KMC5 161021Z 21008KT 06/M02 A301 RMK A01 T00591020  RH  057%=      5-min Rain = 0
KMC5 161022Z 21007KT 06/M02 A301 RMK A01 T00581020  RH  057%=      5-min Rain = 0
KMC5 161023Z 22006KT 06/M02 A301 RMK A01 T00581020  RH  057%=      5-min Rain = 0
KMC5 161024Z 21007KT 06/M02 A301 RMK A01 T00581020  RH  057%=      5-min Rain = 0
KMC5 161025Z 21006KT 06/M02 A301 RMK A01 T00581020  RH  057%=      5-min Rain = 0
KMC5 161026Z 21007KT 06/M02 A301 RMK A01 T00581020  RH  057%=      5-min Rain = 0
KMC5 161027Z 21007KT 06/M02 A301 RMK A01 T00581020  RH  057%=      5-min Rain = 0
KMC5 161028Z 21007KT 06/M02 A301 RMK A01 T00581020  RH  057%=      5-min Rain = 0
KMC5 161029Z 21007KT 06/M02 A301 RMK A01 T00581020  RH  057%=      5-min Rain = 0
KMC5 161030Z 21007KT 06/M02 A301 RMK A01 T00591020  RH  057%=      5-min Rain = 0
KMC5 161031Z 21007KT 06/M02 A301 RMK A01 T00601020  RH  057%=      5-min Rain = 0
KMC5 161032Z 21006KT 06/M02 A301 RMK A01 T00601020  RH  057%=      5-min Rain = 0
KMC5 161033Z 21006KT 06/M02 A301 RMK A01 T00601020  RH  057%=      5-min Rain = 0
KMC5 161034Z 21006KT 06/M02 A301 RMK A01 T00601019  RH  057%=      5-min Rain = 0
KMC5 161035Z 21006KT 06/M02 A301 RMK A01 T00591020  RH  057%=      5-min Rain = 0
KMC5 161036Z 21006KT 06/M02 A301 RMK A01 T00591020  RH  057%=      5-min Rain = 0
KMC5 161037Z 21005KT 06/M02 A301 RMK A01 T00601020  RH  057%=      5-min Rain = 0
KMC5 161038Z 21006KT 06/M02 A301 RMK A01 T00601020  RH  057%=      5-min Rain = 0
KMC5 161039Z 21006KT 06/M02 A3011 RMK A01 T00601020  RH  057%=      5-min Rain = 0
KMC5 161040Z 21005KT 06/M02 A3011 RMK A01 T00601020  RH  057%=      5-min Rain = 0
KMC5 161041Z 21006KT 06/M02 A3011 RMK A01 T00601020  RH  057%=      5-min Rain = 0
KMC5 161042Z 22005KT 06/M02 A3011 RMK A01 T00601019  RH  057%=      5-min Rain = 0
KMC5 161043Z 22005KT 06/M02 A3011 RMK A01 T00601020  RH  057%=      5-min Rain = 0
KMC5 161044Z 22005KT 06/M02 A3011 RMK A01 T00601020  RH  057%=      5-min Rain = 0
KMC5 161045Z 22005KT 06/M02 A3011 RMK A01 T00611019  RH  056%=      5-min Rain = 0
KMC5 161046Z 21005KT 06/M02 A3011 RMK A01 T00611019  RH  056%=      5-min Rain = 0
KMC5 161047Z 21005KT 06/M02 A3011 RMK A01 T00611019  RH  056%=      5-min Rain = 0
KMC5 161048Z 22005KT 06/M02 A3011 RMK A01 T00611019  RH  056%=      5-min Rain = 0
KMC5 161049Z 22006KT 06/M02 A3011 RMK A01 T00611019  RH  057%=      5-min Rain = 0
KMC5 161050Z 22006KT 06/M02 A3011 RMK A01 T00611019  RH  057%=      5-min Rain = 0
KMC5 161051Z 22006KT 06/M02 A3011 RMK A01 T00611019  RH  056%=      5-min Rain = 0
KMC5 161052Z 21006KT 06/M02 A3011 RMK A01 T00601019  RH  057%=      5-min Rain = 0
KMC5 161053Z 21006KT 06/M02 A3011 RMK A01 T00591020  RH  057%=      5-min Rain = 0
KMC5 161054Z 21006KT 06/M02 A301 RMK A01 T00591019  RH  057%=      5-min Rain = 0
KMC5 161055Z 21007KT 06/M02 A301 RMK A01 T00591019  RH  058%=      5-min Rain = 0
KMC5 161056Z 21007KT 06/M02 A301 RMK A01 T00581019  RH  058%=      5-min Rain = 0
KMC5 161057Z 21008KT 06/M02 A301 RMK A01 T00581019  RH  058%=      5-min Rain = 0
KMC5 161058Z 22007KT 06/M02 A301 RMK A01 T00591019  RH  057%=      5-min Rain = 0
KMC5 161059Z 21008KT 06/M02 A301 RMK A01 T00591019  RH  057%=      5-min Rain = 0
KMC5 161100Z 21008KT 06/M02 A301 RMK A01 T00581019  RH  058%=      5-min Rain = 0
KMC5 161101Z 21008KT 06/M02 A301 RMK A01 T00571019  RH  058%=      5-min Rain = 0
KMC5 161102Z 21008KT 06/M02 A301 RMK A01 T00571019  RH  058%=      5-min Rain = 0
KMC5 161103Z 21008KT 06/M02 A301 RMK A01 T00571019  RH  058%=      5-min Rain = 0
KMC5 161104Z 21008KT 06/M02 A301 RMK A01 T00571019  RH  058%=      5-min Rain = 0
KMC5 161105Z 22008KT 06/M02 A301 RMK A01 T00581019  RH  058%=      5-min Rain = 0
KMC5 161106Z 21008KT 06/M02 A301 RMK A01 T00571019  RH  058%=      5-min Rain = 0
KMC5 161107Z 22008KT 06/M02 A301 RMK A01 T00581018  RH  058%=      5-min Rain = 0
KMC5 161108Z 22008KT 06/M02 A301 RMK A01 T00591018  RH  058%=      5-min Rain = 0
KMC5 161109Z 22008KT 06/M02 A301 RMK A01 T00591018  RH  058%=      5-min Rain = 0
KMC5 161110Z 22008KT 06/M02 A301 RMK A01 T00591018  RH  058%=      5-min Rain = 0
KMC5 161111Z 21008KT 06/M02 A301 RMK A01 T00581019  RH  058%=      5-min Rain = 0
KMC5 161112Z 22008KT 06/M02 A301 RMK A01 T00581019  RH  058%=      5-min Rain = 0
KMC5 161113Z 21008KT 06/M02 A301 RMK A01 T00571020  RH  058%=      5-min Rain = 0
KMC5 161114Z 22008KT 06/M02 A301 RMK A01 T00561019  RH  058%=      5-min Rain = 0
KMC5 161115Z 21009KT 06/M02 A301 RMK A01 T00551019  RH  059%=      5-min Rain = 0
KMC5 161116Z 22008KT 06/M02 A301 RMK A01 T00561019  RH  059%=      5-min Rain = 0
KMC5 161117Z 22009KT 06/M02 A301 RMK A01 T00561019  RH  058%=      5-min Rain = 0
KMC5 161118Z 21009KT 06/M02 A301 RMK A01 T00571019  RH  058%=      5-min Rain = 0
KMC5 161119Z 21008KT 06/M02 A301 RMK A01 T00571018  RH  058%=      5-min Rain = 0
KMC5 161120Z 22009KT 06/M02 A301 RMK A01 T00571018  RH  058%=      5-min Rain = 0
KMC5 161121Z 21009KT 06/M02 A301 RMK A01 T00571018  RH  058%=      5-min Rain = 0
KMC5 161122Z 22008KT 06/M02 A301 RMK A01 T00571018  RH  058%=      5-min Rain = 0
KMC5 161123Z 21009KT 06/M02 A301 RMK A01 T00561019  RH  058%=      5-min Rain = 0
KMC5 161124Z 22009KT 06/M02 A301 RMK A01 T00571018  RH  058%=      5-min Rain = 0
KMC5 161125Z 22009KT 06/M02 A3009 RMK A01 T00571018  RH  058%=      5-min Rain = 0
KMC5 161126Z 22009KT 06/M02 A3009 RMK A01 T00571018  RH  058%=      5-min Rain = 0
KMC5 161127Z 22009KT 06/M02 A3009 RMK A01 T00561019  RH  059%=      5-min Rain = 0
KMC5 161128Z 22009KT 06/M02 A3009 RMK A01 T00561018  RH  059%=      5-min Rain = 0
KMC5 161129Z 22010KT 06/M02 A3009 RMK A01 T00561018  RH  059%=      5-min Rain = 0
KMC5 161130Z 22010KT 06/M02 A3009 RMK A01 T00561018  RH  059%=      5-min Rain = 0
KMC5 161131Z 22009KT 06/M02 A3009 RMK A01 T00561018  RH  059%=      5-min Rain = 0
KMC5 161132Z 22008KT 06/M02 A3009 RMK A01 T00551018  RH  059%=      5-min Rain = 0
KMC5 161133Z 22009KT 06/M02 A3009 RMK A01 T00551018  RH  059%=      5-min Rain = 0
KMC5 161134Z 22009KT 05/M02 A3009 RMK A01 T00541018  RH  059%=      5-min Rain = 0
KMC5 161135Z 22008KT 05/M02 A3009 RMK A01 T00541018  RH  060%=      5-min Rain = 0
KMC5 161136Z 22008KT 05/M02 A3009 RMK A01 T00541018  RH  060%=      5-min Rain = 0
KMC5 161137Z 21008KT 05/M02 A3009 RMK A01 T00541018  RH  060%=      5-min Rain = 0
KMC5 161138Z 22008KT 05/M02 A3009 RMK A01 T00541018  RH  060%=      5-min Rain = 0
KMC5 161139Z 22009KT 05/M02 A3009 RMK A01 T00531019  RH  060%=      5-min Rain = 0
KMC5 161140Z 22009KT 05/M02 A3009 RMK A01 T00521019  RH  060%=      5-min Rain = 0
KMC5 161141Z 22008KT 05/M02 A3009 RMK A01 T00521019  RH  060%=      5-min Rain = 0
KMC5 161142Z 22008KT 05/M02 A3009 RMK A01 T00531018  RH  060%=      5-min Rain = 0
KMC5 161143Z 22008KT 05/M02 A3009 RMK A01 T00521019  RH  060%=      5-min Rain = 0
KMC5 161144Z 22008KT 05/M02 A3009 RMK A01 T00511019  RH  060%=      5-min Rain = 0
KMC5 161145Z 22008KT 05/M02 A3009 RMK A01 T00511019  RH  061%=      5-min Rain = 0
KMC5 161146Z 22008KT 05/M02 A3009 RMK A01 T00511019  RH  061%=      5-min Rain = 0
KMC5 161147Z 22008KT 05/M02 A3009 RMK A01 T00511019  RH  061%=      5-min Rain = 0
KMC5 161148Z 22008KT 05/M02 A3009 RMK A01 T00511019  RH  061%=      5-min Rain = 0
KMC5 161149Z 22009KT 05/M02 A3009 RMK A01 T00501019  RH  061%=      5-min Rain = 0
KMC5 161150Z 22008KT 05/M02 A3009 RMK A01 T00511018  RH  061%=      5-min Rain = 0
KMC5 161151Z 22010KT 05/M02 A3009 RMK A01 T00511018  RH  061%=      5-min Rain = 0
KMC5 161152Z 22009KT 05/M02 A3009 RMK A01 T00521017  RH  061%=      5-min Rain = 0
KMC5 161153Z 22009KT 05/M02 A3009 RMK A01 T00521018  RH  060%=      5-min Rain = 0
KMC5 161154Z 22010KT 05/M02 A3009 RMK A01 T00521018  RH  060%=      5-min Rain = 0
KMC5 161155Z 22009KT 05/M02 A3009 RMK A01 T00521018  RH  061%=      5-min Rain = 0
KMC5 161156Z 22009KT 05/M02 A3009 RMK A01 T00521018  RH  061%=      5-min Rain = 0
KMC5 161157Z 22009KT 05/M02 A3009 RMK A01 T00511018  RH  061%=      5-min Rain = 0
KMC5 161158Z 22009KT 05/M02 A3009 RMK A01 T00501018  RH  061%=      5-min Rain = 0
KMC5 161159Z 22009KT 05/M02 A3009 RMK A01 T00501018  RH  061%=      5-min Rain = 0
KMC5 161200Z 22009KT 05/M02 A3009 RMK A01 T00501018  RH  062%=      5-min Rain = 0
KMC5 161201Z 23009KT 05/M02 A3009 RMK A01 T00501018  RH  062%=      5-min Rain = 0
KMC5 161202Z 23009KT 05/M02 A3009 RMK A01 T00501018  RH  062%=      5-min Rain = 0
KMC5 161203Z 23009KT 05/M02 A3009 RMK A01 T00491018  RH  062%=      5-min Rain = 0
KMC5 161204Z 23009KT 05/M02 A3009 RMK A01 T00491018  RH  062%=      5-min Rain = 0
KMC5 161205Z 23009KT 05/M02 A3009 RMK A01 T00491018  RH  062%=      5-min Rain = 0
KMC5 161206Z 23009KT 05/M02 A3009 RMK A01 T00491018  RH  062%=      5-min Rain = 0
KMC5 161207Z 23009KT 05/M02 A3009 RMK A01 T00491018  RH  062%=      5-min Rain = 0
KMC5 161208Z 23009KT 05/M02 A3009 RMK A01 T00491018  RH  062%=      5-min Rain = 0
KMC5 161209Z 23009KT 05/M02 A3009 RMK A01 T00491018  RH  062%=      5-min Rain = 0
KMC5 161210Z 23009KT 05/M02 A3008 RMK A01 T00491018  RH  062%=      5-min Rain = 0
KMC5 161211Z 23009KT 05/M02 A3008 RMK A01 T00481018  RH  062%=      5-min Rain = 0
KMC5 161212Z 23009KT 05/M02 A3008 RMK A01 T00481018  RH  062%=      5-min Rain = 0
KMC5 161213Z 23009KT 05/M02 A3008 RMK A01 T00481018  RH  063%=      5-min Rain = 0
KMC5 161214Z 23009KT 05/M02 A3008 RMK A01 T00471018  RH  063%=      5-min Rain = 0
KMC5 161215Z 23009KT 05/M02 A3008 RMK A01 T00461018  RH  063%=      5-min Rain = 0
KMC5 161216Z 23009KT 05/M02 A3008 RMK A01 T00471018  RH  063%=      5-min Rain = 0
KMC5 161217Z 23009KT 05/M02 A3008 RMK A01 T00471018  RH  063%=      5-min Rain = 0
KMC5 161218Z 23009KT 05/M02 A3008 RMK A01 T00471018  RH  063%=      5-min Rain = 0
KMC5 161219Z 23008KT 05/M02 A3008 RMK A01 T00471017  RH  063%=      5-min Rain = 0
KMC5 161220Z 23009KT 05/M02 A3008 RMK A01 T00471018  RH  063%=      5-min Rain = 0
KMC5 161221Z 23009KT 05/M02 A3008 RMK A01 T00471018  RH  063%=      5-min Rain = 0
KMC5 161222Z 23009KT 05/M02 A3008 RMK A01 T00471017  RH  063%=      5-min Rain = 0
KMC5 161223Z 23008KT 05/M02 A3008 RMK A01 T00471017  RH  063%=      5-min Rain = 0
KMC5 161224Z 23008KT 05/M02 A3008 RMK A01 T00471017  RH  063%=      5-min Rain = 0
KMC5 161225Z 23008KT 05/M02 A3008 RMK A01 T00461017  RH  063%=      5-min Rain = 0
KMC5 161226Z 23007KT 05/M02 A3008 RMK A01 T00471017  RH  063%=      5-min Rain = 0
KMC5 161227Z 23007KT 05/M02 A3008 RMK A01 T00471017  RH  063%=      5-min Rain = 0
KMC5 161228Z 23007KT 05/M02 A3008 RMK A01 T00461017  RH  063%=      5-min Rain = 0
KMC5 161229Z 23007KT 05/M02 A3008 RMK A01 T00461017  RH  064%=      5-min Rain = 0
KMC5 161230Z 23006KT 05/M02 A3008 RMK A01 T00461017  RH  064%=      5-min Rain = 0
KMC5 161231Z 23006KT 05/M02 A3008 RMK A01 T00461017  RH  064%=      5-min Rain = 0
KMC5 161232Z 23006KT 05/M02 A3008 RMK A01 T00451018  RH  064%=      5-min Rain = 0
KMC5 161233Z 22006KT 04/M02 A3008 RMK A01 T00441017  RH  064%=      5-min Rain = 0
KMC5 161234Z 22006KT 04/M02 A3008 RMK A01 T00441017  RH  064%=      5-min Rain = 0
KMC5 161235Z 22006KT 04/M02 A3008 RMK A01 T00441017  RH  064%=      5-min Rain = 0
KMC5 161236Z 22005KT 04/M02 A3008 RMK A01 T00441017  RH  065%=      5-min Rain = 0
KMC5 161237Z 21006KT 04/M02 A3008 RMK A01 T00441017  RH  065%=      5-min Rain = 0
KMC5 161238Z 21007KT 05/M02 A3008 RMK A01 T00451015  RH  065%=      5-min Rain = 0
KMC5 161239Z 21006KT 05/M01 A3008 RMK A01 T00481014  RH  064%=      5-min Rain = 0
KMC5 161240Z 21007KT 05/M01 A3008 RMK A01 T00491014  RH  063%=      5-min Rain = 0
KMC5 161241Z 21007KT 05/M01 A3008 RMK A01 T00501014  RH  063%=      5-min Rain = 0
KMC5 161242Z 21006KT 05/M01 A3008 RMK A01 T00501014  RH  063%=      5-min Rain = 0
KMC5 161243Z 21007KT 05/M02 A3008 RMK A01 T00501015  RH  063%=      5-min Rain = 0
KMC5 161244Z 21006KT 05/M02 A3008 RMK A01 T00491015  RH  063%=      5-min Rain = 0
KMC5 161245Z 20005KT 05/M02 A3008 RMK A01 T00481015  RH  063%=      5-min Rain = 0
KMC5 161246Z 20006KT 05/M02 A3008 RMK A01 T00481016  RH  064%=      5-min Rain = 0
KMC5 161247Z 20007KT 05/M02 A3008 RMK A01 T00471016  RH  064%=      5-min Rain = 0
KMC5 161248Z 20007KT 05/M02 A3008 RMK A01 T00471015  RH  064%=      5-min Rain = 0
KMC5 161249Z 20007KT 05/M02 A3008 RMK A01 T00471016  RH  064%=      5-min Rain = 0
KMC5 161250Z 21006KT 05/M02 A3008 RMK A01 T00471015  RH  064%=      5-min Rain = 0
KMC5 161251Z 21006KT 05/M02 A3008 RMK A01 T00471015  RH  064%=      5-min Rain = 0
KMC5 161252Z 21007KT 05/M02 A3008 RMK A01 T00451016  RH  064%=      5-min Rain = 0
KMC5 161253Z 21007KT 05/M02 A3008 RMK A01 T00451015  RH  065%=      5-min Rain = 0
KMC5 161254Z 20007KT 05/M02 A3008 RMK A01 T00451015  RH  065%=      5-min Rain = 0
KMC5 161255Z 20007KT 05/M02 A3008 RMK A01 T00451015  RH  065%=      5-min Rain = 0
KMC5 161256Z 20007KT 05/M02 A3008 RMK A01 T00451016  RH  065%=      5-min Rain = 0
KMC5 161257Z 21007KT 05/M02 A3008 RMK A01 T00451015  RH  065%=      5-min Rain = 0
KMC5 161258Z 20007KT 04/M02 A3008 RMK A01 T00441015  RH  065%=      5-min Rain = 0
KMC5 161259Z 21006KT 04/M02 A3008 RMK A01 T00431015  RH  066%=      5-min Rain = 0
KMC5 161300Z 21005KT 04/M02 A3008 RMK A01 T00431015  RH  066%=      5-min Rain = 0
KMC5 161301Z 22005KT 04/M02 A3008 RMK A01 T00431016  RH  066%=      5-min Rain = 0
KMC5 161302Z 22005KT 04/M02 A3008 RMK A01 T00431016  RH  066%=      5-min Rain = 0
KMC5 161303Z 22004KT 04/M02 A3008 RMK A01 T00421016  RH  066%=      5-min Rain = 0
KMC5 161304Z 23005KT 04/M02 A3008 RMK A01 T00421016  RH  066%=      5-min Rain = 0
KMC5 161305Z 23004KT 04/M02 A3008 RMK A01 T00421015  RH  066%=      5-min Rain = 0
KMC5 161306Z 22004KT 04/M02 A3008 RMK A01 T00421016  RH  066%=      5-min Rain = 0
KMC5 161307Z 23004KT 04/M02 A3008 RMK A01 T00421017  RH  066%=      5-min Rain = 0
KMC5 161308Z 23004KT 04/M02 A3008 RMK A01 T00411016  RH  066%=      5-min Rain = 0
KMC5 161309Z 23003KT 04/M02 A3008 RMK A01 T00411016  RH  066%=      5-min Rain = 0
KMC5 161310Z 23004KT 04/M02 A3008 RMK A01 T00411016  RH  066%=      5-min Rain = 0
KMC5 161311Z 24004KT 04/M02 A3008 RMK A01 T00411016  RH  066%=      5-min Rain = 0
KMC5 161312Z 22004KT 04/M02 A3008 RMK A01 T00411016  RH  066%=      5-min Rain = 0
KMC5 161313Z 23005KT 04/M02 A3008 RMK A01 T00411017  RH  066%=      5-min Rain = 0
KMC5 161314Z 23005KT 04/M02 A3008 RMK A01 T00401016  RH  067%=      5-min Rain = 0
KMC5 161315Z 23004KT 04/M02 A3008 RMK A01 T00401016  RH  067%=      5-min Rain = 0
KMC5 161316Z 22004KT 04/M02 A3008 RMK A01 T00401016  RH  067%=      5-min Rain = 0
KMC5 161317Z 23004KT 04/M02 A3008 RMK A01 T00401016  RH  067%=      5-min Rain = 0
KMC5 161318Z 22005KT 04/M02 A3008 RMK A01 T00401016  RH  067%=      5-min Rain = 0
KMC5 161319Z 22004KT 04/M02 A3008 RMK A01 T00421015  RH  067%=      5-min Rain = 0
KMC5 161320Z 22004KT 04/M02 A3008 RMK A01 T00421015  RH  066%=      5-min Rain = 0
KMC5 161321Z 23005KT 04/M02 A3008 RMK A01 T00421015  RH  066%=      5-min Rain = 0
KMC5 161322Z 22005KT 04/M02 A3008 RMK A01 T00421015  RH  066%=      5-min Rain = 0
KMC5 161323Z 23004KT 04/M02 A3008 RMK A01 T00421015  RH  066%=      5-min Rain = 0
KMC5 161324Z 23004KT 04/M02 A3008 RMK A01 T00421015  RH  066%=      5-min Rain = 0
KMC5 161325Z 23005KT 04/M02 A3008 RMK A01 T00421015  RH  066%=      5-min Rain = 0
KMC5 161326Z 23005KT 04/M02 A3008 RMK A01 T00411015  RH  067%=      5-min Rain = 0
KMC5 161327Z 23005KT 04/M02 A3008 RMK A01 T00411015  RH  067%=      5-min Rain = 0
KMC5 161328Z 23005KT 04/M02 A3008 RMK A01 T00411015  RH  067%=      5-min Rain = 0
KMC5 161329Z 23005KT 04/M02 A3008 RMK A01 T00411015  RH  067%=      5-min Rain = 0
KMC5 161330Z 22006KT 04/M02 A3008 RMK A01 T00411015  RH  067%=      5-min Rain = 0
KMC5 161331Z 22006KT 04/M02 A3008 RMK A01 T00411015  RH  067%=      5-min Rain = 0
KMC5 161332Z 23005KT 04/M01 A3008 RMK A01 T00421014  RH  067%=      5-min Rain = 0
KMC5 161333Z 22006KT 04/M01 A3008 RMK A01 T00421014  RH  067%=      5-min Rain = 0
KMC5 161334Z 22007KT 04/M02 A3008 RMK A01 T00421015  RH  067%=      5-min Rain = 0
KMC5 161335Z 21007KT 04/M01 A3008 RMK A01 T00431014  RH  066%=      5-min Rain = 0
KMC5 161336Z 21007KT 04/M01 A3008 RMK A01 T00441014  RH  066%=      5-min Rain = 0
KMC5 161337Z 22006KT 04/M01 A3008 RMK A01 T00441013  RH  066%=      5-min Rain = 0
KMC5 161338Z 22007KT 04/M01 A3008 RMK A01 T00441014  RH  066%=      5-min Rain = 0
KMC5 161339Z 22006KT 04/M01 A3008 RMK A01 T00441013  RH  066%=      5-min Rain = 0
KMC5 161340Z 22006KT 04/M01 A3008 RMK A01 T00441013  RH  066%=      5-min Rain = 0
KMC5 161341Z 21007KT 04/M01 A3008 RMK A01 T00441013  RH  067%=      5-min Rain = 0
KMC5 161342Z 21006KT 04/M01 A3008 RMK A01 T00431013  RH  067%=      5-min Rain = 0
KMC5 161343Z 21006KT 04/M01 A3008 RMK A01 T00431013  RH  067%=      5-min Rain = 0
KMC5 161344Z 21005KT 04/M01 A3008 RMK A01 T00431013  RH  067%=      5-min Rain = 0
KMC5 161345Z 22005KT 04/M01 A3008 RMK A01 T00431013  RH  067%=      5-min Rain = 0
KMC5 161346Z 22006KT 04/M01 A3008 RMK A01 T00431013  RH  067%=      5-min Rain = 0
KMC5 161347Z 22006KT 04/M01 A3008 RMK A01 T00441012  RH  067%=      5-min Rain = 0
KMC5 161348Z 22005KT 05/M01 A3008 RMK A01 T00451012  RH  066%=      5-min Rain = 0
KMC5 161349Z 22006KT 05/M01 A3008 RMK A01 T00461012  RH  066%=      5-min Rain = 0
KMC5 161350Z 22005KT 05/M01 A3008 RMK A01 T00471011  RH  066%=      5-min Rain = 0
KMC5 161351Z 22007KT 05/M01 A3008 RMK A01 T00481011  RH  066%=      5-min Rain = 0
KMC5 161352Z 22006KT 05/M01 A3008 RMK A01 T00491010  RH  065%=      5-min Rain = 0
KMC5 161353Z 22007KT 05/M01 A3008 RMK A01 T00501010  RH  065%=      5-min Rain = 0
KMC5 161354Z 22006KT 05/M01 A3008 RMK A01 T00511010  RH  065%=      5-min Rain = 0
KMC5 161355Z 22006KT 05/M01 A3008 RMK A01 T00511010  RH  065%=      5-min Rain = 0
KMC5 161356Z 22006KT 05/M01 A3008 RMK A01 T00511010  RH  065%=      5-min Rain = 0
KMC5 161357Z 22006KT 05/M01 A3008 RMK A01 T00511010  RH  065%=      5-min Rain = 0
KMC5 161358Z 22006KT 05/M01 A3008 RMK A01 T00511010  RH  065%=      5-min Rain = 0
KMC5 161359Z 21006KT 05/M01 A3008 RMK A01 T00521009  RH  065%=      5-min Rain = 0
KMC5 161400Z 21006KT 05/M01 A3008 RMK A01 T00521008  RH  065%=      5-min Rain = 0
KMC5 161401Z 22006KT 05/M01 A3008 RMK A01 T00531009  RH  065%=      5-min Rain = 0
KMC5 161402Z 22007KT 05/M01 A3008 RMK A01 T00541008  RH  064%=      5-min Rain = 0
KMC5 161403Z 21006KT 06/M01 A3008 RMK A01 T00551008  RH  064%=      5-min Rain = 0
KMC5 161404Z 21006KT 06/M01 A3008 RMK A01 T00551008  RH  064%=      5-min Rain = 0
KMC5 161405Z 22006KT 06/M01 A3008 RMK A01 T00561008  RH  064%=      5-min Rain = 0
KMC5 161406Z 21007KT 06/M01 A3008 RMK A01 T00571007  RH  064%=      5-min Rain = 0
KMC5 161407Z 22007KT 06/M01 A3008 RMK A01 T00581006  RH  063%=      5-min Rain = 0
KMC5 161408Z 22007KT 06/M01 A3008 RMK A01 T00601006  RH  063%=      5-min Rain = 0
KMC5 161409Z 22008KT 06/M01 A3008 RMK A01 T00611006  RH  062%=      5-min Rain = 0
KMC5 161410Z 22007KT 06/M01 A3008 RMK A01 T00621006  RH  062%=      5-min Rain = 0
KMC5 161411Z 21008KT 06/M01 A3008 RMK A01 T00631006  RH  062%=      5-min Rain = 0
KMC5 161412Z 21007KT 06/M01 A3008 RMK A01 T00631006  RH  061%=      5-min Rain = 0
KMC5 161413Z 22006KT 06/M01 A3008 RMK A01 T00641005  RH  061%=      5-min Rain = 0
KMC5 161414Z 21007KT 07/M01 A3008 RMK A01 T00651005  RH  061%=      5-min Rain = 0
KMC5 161415Z 21007KT 07/M01 A3008 RMK A01 T00651005  RH  061%=      5-min Rain = 0
KMC5 161416Z 21007KT 07/M01 A3008 RMK A01 T00661005  RH  060%=      5-min Rain = 0
KMC5 161417Z 21007KT 07/M01 A3008 RMK A01 T00671005  RH  060%=      5-min Rain = 0
KMC5 161418Z 21006KT 07/M00 A3008 RMK A01 T00671004  RH  060%=      5-min Rain = 0
KMC5 161419Z 21008KT 07/M00 A3008 RMK A01 T00681004  RH  060%=      5-min Rain = 0
KMC5 161420Z 21008KT 07/M00 A3008 RMK A01 T00701003  RH  060%=      5-min Rain = 0
KMC5 161421Z 21008KT 07/M00 A3008 RMK A01 T00711003  RH  059%=      5-min Rain = 0
KMC5 161422Z 21009KT 07/M00 A3008 RMK A01 T00721003  RH  059%=      5-min Rain = 0
KMC5 161423Z 21009KT 07/M00 A3008 RMK A01 T00721003  RH  059%=      5-min Rain = 0
KMC5 161424Z 21008KT 07/M00 A3008 RMK A01 T00731003  RH  059%=      5-min Rain = 0
KMC5 161425Z 20009KT 07/M00 A3008 RMK A01 T00741003  RH  058%=      5-min Rain = 0
KMC5 161426Z 20009KT 07/M00 A3008 RMK A01 T00741003  RH  058%=      5-min Rain = 0
KMC5 161427Z 20009KT 08/M00 A3008 RMK A01 T00751003  RH  058%=      5-min Rain = 0
KMC5 161428Z 20007KT 08/M00 A3008 RMK A01 T00761002  RH  058%=      5-min Rain = 0
KMC5 161429Z 20009KT 08/M00 A3008 RMK A01 T00771002  RH  057%=      5-min Rain = 0
KMC5 161430Z 20009KT 08/M00 A3008 RMK A01 T00771002  RH  057%=      5-min Rain = 0
KMC5 161431Z 20008KT 08/M00 A3008 RMK A01 T00781003  RH  057%=      5-min Rain = 0
KMC5 161432Z 20010KT 08/M00 A3008 RMK A01 T00781003  RH  057%=      5-min Rain = 0
KMC5 161433Z 20009KT 08/M00 A3008 RMK A01 T00781003  RH  057%=      5-min Rain = 0
KMC5 161434Z 20009KT 08/M00 A3008 RMK A01 T00791001  RH  057%=      5-min Rain = 0
KMC5 161435Z 20009KT 08/M00 A3008 RMK A01 T00801002  RH  056%=      5-min Rain = 0
KMC5 161436Z 20010KT 08/M00 A3008 RMK A01 T00801002  RH  056%=      5-min Rain = 0
KMC5 161437Z 21009KT 08/M00 A3008 RMK A01 T00801001  RH  056%=      5-min Rain = 0
KMC5 161438Z 20009KT 08/M00 A3008 RMK A01 T00811001  RH  056%=      5-min Rain = 0
KMC5 161439Z 20009KT 08/M00 A3008 RMK A01 T00811002  RH  056%=      5-min Rain = 0
KMC5 161440Z 21009KT 08/M00 A3008 RMK A01 T00811002  RH  056%=      5-min Rain = 0
KMC5 161441Z 21009KT 08/M00 A3008 RMK A01 T00811001  RH  056%=      5-min Rain = 0
KMC5 161442Z 21012KT 08/M00 A3008 RMK A01 T00821002  RH  055%=      5-min Rain = 0
KMC5 161443Z 21011KT 08/M00 A3008 RMK A01 T00831002  RH  055%=      5-min Rain = 0
KMC5 161444Z 21013KT 08/M00 A3008 RMK A01 T00831002  RH  055%=      5-min Rain = 0
KMC5 161445Z 21011KT 08/M00 A3008 RMK A01 T00831002  RH  055%=      5-min Rain = 0
KMC5 161446Z 22010KT 08/M00 A3008 RMK A01 T00841001  RH  055%=      5-min Rain = 0
KMC5 161447Z 21011KT 09/M00 A3008 RMK A01 T00851001  RH  055%=      5-min Rain = 0
KMC5 161448Z 21012KT 09/M00 A3008 RMK A01 T00851001  RH  055%=      5-min Rain = 0
KMC5 161449Z 21011KT 09/M00 A3008 RMK A01 T00851001  RH  055%=      5-min Rain = 0
KMC5 161450Z 20010KT 09/M00 A3008 RMK A01 T00861001  RH  054%=      5-min Rain = 0
KMC5 161451Z 21009KT 09/00 A3008 RMK A01 T00870000  RH  054%=      5-min Rain = 0
KMC5 161452Z 21010KT 09/00 A3008 RMK A01 T008800-0  RH  054%=      5-min Rain = 0
KMC5 161453Z 21011KT 09/00 A3008 RMK A01 T00890000  RH  054%=      5-min Rain = 0
KMC5 161454Z 21012KT 09/00 A3008 RMK A01 T008900-0  RH  053%=      5-min Rain = 0
KMC5 161455Z 21010KT 09/00 A3008 RMK A01 T008900-0  RH  053%=      5-min Rain = 0
KMC5 161456Z 21011KT 09/00 A3008 RMK A01 T00900000  RH  053%=      5-min Rain = 0
KMC5 161457Z 21011KT 09/00 A3008 RMK A01 T00900001  RH  053%=      5-min Rain = 0
KMC5 161458Z 21011KT 09/00 A3008 RMK A01 T00910000  RH  053%=      5-min Rain = 0
KMC5 161459Z 21013KT 09/00 A3008 RMK A01 T00920001  RH  053%=      5-min Rain = 0
KMC5 161500Z 21012KT 09/00 A3008 RMK A01 T009200-0  RH  052%=      5-min Rain = 0
KMC5 161501Z 21013KT 09/00 A3008 RMK A01 T009100-0  RH  053%=      5-min Rain = 0
KMC5 161502Z 21013KT 09/00 A3008 RMK A01 T009100-0  RH  053%=      5-min Rain = 0
KMC5 161503Z 21013KT 09/00 A3008 RMK A01 T00920000  RH  053%=      5-min Rain = 0
KMC5 161504Z 21014KT 09/00 A3008 RMK A01 T00930001  RH  052%=      5-min Rain = 0
KMC5 161505Z 21015KT 09/00 A3008 RMK A01 T00930000  RH  052%=      5-min Rain = 0
KMC5 161506Z 21015KT 09/00 A3008 RMK A01 T00930000  RH  052%=      5-min Rain = 0
KMC5 161507Z 21013KT 09/00 A3008 RMK A01 T009300-0  RH  052%=      5-min Rain = 0
KMC5 161508Z 21012KT 09/00 A3008 RMK A01 T00940001  RH  052%=      5-min Rain = 0
KMC5 161509Z 20013KT 10/00 A3008 RMK A01 T00950001  RH  052%=      5-min Rain = 0
KMC5 161510Z 20014KT 10/00 A3008 RMK A01 T00950000  RH  052%=      5-min Rain = 0
KMC5 161511Z 20014KT 10/00 A3008 RMK A01 T00950001  RH  052%=      5-min Rain = 0
KMC5 161512Z 21013KT 10/00 A3008 RMK A01 T00960001  RH  052%=      5-min Rain = 0
KMC5 161513Z 21012KT 10/00 A3008 RMK A01 T00960001  RH  052%=      5-min Rain = 0
KMC5 161514Z 20012KT 10/00 A3008 RMK A01 T00970002  RH  051%=      5-min Rain = 0
KMC5 161515Z 20012KT 10/00 A3008 RMK A01 T00980001  RH  051%=      5-min Rain = 0
KMC5 161516Z 20013KT 10/00 A3008 RMK A01 T00980001  RH  051%=      5-min Rain = 0
KMC5 161517Z 20013KT 10/00 A3008 RMK A01 T00980001  RH  051%=      5-min Rain = 0
KMC5 161518Z 20013KT 10/00 A3008 RMK A01 T00980001  RH  051%=      5-min Rain = 0
KMC5 161519Z 20013KT 10/00 A3008 RMK A01 T00980001  RH  051%=      5-min Rain = 0
KMC5 161520Z 21012KT 10/00 A3008 RMK A01 T00990002  RH  051%=      5-min Rain = 0
KMC5 161521Z 21011KT 10/00 A3008 RMK A01 T00990002  RH  051%=      5-min Rain = 0
KMC5 161522Z 21011KT 10/00 A3008 RMK A01 T01000002  RH  051%=      5-min Rain = 0
KMC5 161523Z 21013KT 10/00 A3008 RMK A01 T01010002  RH  050%=      5-min Rain = 0
KMC5 161524Z 21011KT 10/00 A3008 RMK A01 T01010002  RH  050%=      5-min Rain = 0
KMC5 161525Z 21012KT 10/00 A3008 RMK A01 T01020002  RH  050%=      5-min Rain = 0
KMC5 161526Z 21014KT 10/00 A3008 RMK A01 T01020002  RH  050%=      5-min Rain = 0
KMC5 161527Z 21012KT 10/00 A3008 RMK A01 T01020002  RH  050%=      5-min Rain = 0
KMC5 161528Z 21015KT 10/00 A3007 RMK A01 T01030002  RH  049%=      5-min Rain = 0
KMC5 161529Z 22013KT 10/00 A3007 RMK A01 T01020001  RH  049%=      5-min Rain = 0
KMC5 161530Z 21014KT 10/00 A3007 RMK A01 T01030001  RH  049%=      5-min Rain = 0
KMC5 161531Z 22014KT 10/00 A3007 RMK A01 T01030001  RH  049%=      5-min Rain = 0
KMC5 161532Z 21015KT 10/00 A3007 RMK A01 T01030001  RH  049%=      5-min Rain = 0
KMC5 161533Z 21014KT 10/00 A3007 RMK A01 T01030001  RH  049%=      5-min Rain = 0
KMC5 161534Z 21015KT 10/00 A3007 RMK A01 T01030001  RH  049%=      5-min Rain = 0
KMC5 161535Z 22015KT 10/00 A3007 RMK A01 T01040001  RH  049%=      5-min Rain = 0
KMC5 161536Z 22016KT 10/00 A3007 RMK A01 T01030001  RH  049%=      5-min Rain = 0
KMC5 161537Z 22014KT 10/00 A3007 RMK A01 T01040001  RH  049%=      5-min Rain = 0
KMC5 161538Z 22015KT 11/00 A3007 RMK A01 T01050002  RH  049%=      5-min Rain = 0
KMC5 161539Z 21014KT 10/00 A3007 RMK A01 T01040001  RH  049%=      5-min Rain = 0
KMC5 161540Z 21012KT 10/00 A3007 RMK A01 T01040002  RH  049%=      5-min Rain = 0
KMC5 161541Z 21012KT 11/00 A3007 RMK A01 T01050003  RH  049%=      5-min Rain = 0
KMC5 161542Z 20014KT 11/00 A3007 RMK A01 T01070002  RH  048%=      5-min Rain = 0
KMC5 161543Z 21014KT 11/00 A3007 RMK A01 T01060002  RH  048%=      5-min Rain = 0
KMC5 161544Z 21015KT 11/00 A3007 RMK A01 T01050001  RH  048%=      5-min Rain = 0
KMC5 161545Z 21016KT 10/00 A3007 RMK A01 T01040001  RH  049%=      5-min Rain = 0
KMC5 161546Z 22014KT 10/00 A3007 RMK A01 T01030000  RH  049%=      5-min Rain = 0
KMC5 161547Z 21014KT 10/00 A3007 RMK A01 T01030001  RH  049%=      5-min Rain = 0
KMC5 161548Z 22014KT 10/00 A3007 RMK A01 T01030001  RH  049%=      5-min Rain = 0
KMC5 161549Z 21011KT 10/00 A3007 RMK A01 T01030002  RH  049%=      5-min Rain = 0
KMC5 161550Z 21013KT 10/00 A3007 RMK A01 T01040002  RH  049%=      5-min Rain = 0
KMC5 161551Z 20013KT 11/00 A3007 RMK A01 T01050002  RH  049%=      5-min Rain = 0
KMC5 161552Z 21015KT 11/00 A3007 RMK A01 T01060002  RH  049%=      5-min Rain = 0
KMC5 161553Z 21014KT 11/00 A3007 RMK A01 T01070002  RH  048%=      5-min Rain = 0
KMC5 161554Z 22013KT 11/00 A3007 RMK A01 T01070002  RH  048%=      5-min Rain = 0
KMC5 161555Z 21012KT 11/00 A3007 RMK A01 T01080003  RH  048%=      5-min Rain = 0
KMC5 161556Z 21013KT 11/00 A3007 RMK A01 T01090003  RH  048%=      5-min Rain = 0
KMC5 161557Z 21011KT 11/00 A3007 RMK A01 T01100004  RH  048%=      5-min Rain = 0
KMC5 161558Z 21014KT 11/00 A3007 RMK A01 T01120004  RH  047%=      5-min Rain = 0
KMC5 161559Z 21012KT 11/00 A3007 RMK A01 T01130003  RH  047%=      5-min Rain = 0
KMC5 161600Z 21013KT 11/00 A3007 RMK A01 T01130004  RH  047%=      5-min Rain = 0
KMC5 161601Z 21014KT 11/00 A3007 RMK A01 T01140003  RH  046%=      5-min Rain = 0
KMC5 161602Z 21013KT 11/00 A3007 RMK A01 T01140003  RH  046%=      5-min Rain = 0
KMC5 161603Z 21012KT 12/00 A3007 RMK A01 T01150004  RH  046%=      5-min Rain = 0
KMC5 161604Z 21014KT 12/01 A3007 RMK A01 T01180005  RH  046%=      5-min Rain = 0
KMC5 161605Z 22014KT 12/00 A3007 RMK A01 T01180003  RH  045%=      5-min Rain = 0
KMC5 161606Z 21014KT 12/00 A3007 RMK A01 T01190004  RH  045%=      5-min Rain = 0
KMC5 161607Z 21015KT 12/00 A3007 RMK A01 T01210004  RH  045%=      5-min Rain = 0
KMC5 161608Z 21013KT 12/00 A3007 RMK A01 T01210004  RH  045%=      5-min Rain = 0
KMC5 161609Z 20012KT 12/01 A3007 RMK A01 T01230006  RH  044%=      5-min Rain = 0
KMC5 161610Z 21013KT 13/01 A3007 RMK A01 T01270006  RH  044%=      5-min Rain = 0
KMC5 161611Z 20015KT 13/01 A3007 RMK A01 T01270005  RH  043%=      5-min Rain = 0
KMC5 161612Z 21013KT 13/01 A3007 RMK A01 T01270005  RH  043%=      5-min Rain = 0
KMC5 161613Z 21014KT 13/01 A3007 RMK A01 T01270005  RH  043%=      5-min Rain = 0
KMC5 161614Z 22011KT 13/01 A3007 RMK A01 T01280005  RH  043%=      5-min Rain = 0
KMC5 161615Z 21012KT 13/01 A3007 RMK A01 T01310007  RH  043%=      5-min Rain = 0
KMC5 161616Z 21015KT 13/01 A3007 RMK A01 T01320006  RH  042%=      5-min Rain = 0
KMC5 161617Z 22014KT 13/00 A3006 RMK A01 T01300003  RH  042%=      5-min Rain = 0
KMC5 161618Z 22015KT 13/00 A3006 RMK A01 T01280003  RH  042%=      5-min Rain = 0
KMC5 161619Z 22014KT 13/00 A3006 RMK A01 T01280003  RH  043%=      5-min Rain = 0
KMC5 161620Z 21015KT 13/00 A3006 RMK A01 T01280003  RH  042%=      5-min Rain = 0
KMC5 161621Z 21015KT 13/00 A3006 RMK A01 T01280004  RH  042%=      5-min Rain = 0
KMC5 161622Z 22014KT 13/00 A3006 RMK A01 T01290004  RH  042%=      5-min Rain = 0
KMC5 161623Z 21018KT 13/00 A3006 RMK A01 T01300004  RH  042%=      5-min Rain = 0
KMC5 161624Z 22017KT 13/00 A3006 RMK A01 T01300003  RH  042%=      5-min Rain = 0
KMC5 161625Z 21014KT 13/00 A3006 RMK A01 T01300004  RH  042%=      5-min Rain = 0
KMC5 161626Z 21016KT 13/00 A3006 RMK A01 T01310004  RH  042%=      5-min Rain = 0
KMC5 161627Z 21016KT 13/00 A3006 RMK A01 T01310004  RH  042%=      5-min Rain = 0
KMC5 161628Z 21016KT 13/00 A3006 RMK A01 T01300003  RH  042%=      5-min Rain = 0
KMC5 161629Z 21015KT 13/00 A3006 RMK A01 T01300004  RH  042%=      5-min Rain = 0
KMC5 161630Z 21015KT 13/00 A3006 RMK A01 T01320004  RH  042%=      5-min Rain = 0
KMC5 161631Z 21013KT 13/00 A3006 RMK A01 T01310004  RH  042%=      5-min Rain = 0
KMC5 161632Z 21014KT 13/01 A3006 RMK A01 T01320005  RH  042%=      5-min Rain = 0
KMC5 161633Z 20014KT 13/00 A3006 RMK A01 T01330004  RH  041%=      5-min Rain = 0
KMC5 161634Z 21014KT 13/01 A3006 RMK A01 T01330005  RH  042%=      5-min Rain = 0
KMC5 161635Z 21013KT 13/00 A3006 RMK A01 T01310003  RH  041%=      5-min Rain = 0
KMC5 161636Z 22014KT 13/00 A3006 RMK A01 T01290003  RH  042%=      5-min Rain = 0
KMC5 161637Z 22013KT 13/00 A3006 RMK A01 T01270002  RH  042%=      5-min Rain = 0
KMC5 161638Z 22013KT 13/00 A3006 RMK A01 T01260003  RH  043%=      5-min Rain = 0
KMC5 161639Z 21012KT 13/00 A3006 RMK A01 T01250003  RH  043%=      5-min Rain = 0
KMC5 161640Z 20013KT 13/01 A3006 RMK A01 T01260005  RH  043%=      5-min Rain = 0
KMC5 161641Z 20014KT 13/01 A3006 RMK A01 T01290005  RH  043%=      5-min Rain = 0
KMC5 161642Z 21014KT 13/01 A3006 RMK A01 T01300005  RH  042%=      5-min Rain = 0
KMC5 161643Z 21014KT 13/01 A3006 RMK A01 T01310005  RH  042%=      5-min Rain = 0
KMC5 161644Z 21012KT 13/01 A3006 RMK A01 T01310005  RH  042%=      5-min Rain = 0
KMC5 161645Z 21012KT 13/01 A3006 RMK A01 T01310005  RH  042%=      5-min Rain = 0
KMC5 161646Z 21011KT 13/00 A3006 RMK A01 T01300004  RH  042%=      5-min Rain = 0
KMC5 161647Z 21012KT 13/01 A3006 RMK A01 T01300005  RH  042%=      5-min Rain = 0
KMC5 161648Z 21013KT 13/00 A3006 RMK A01 T01290004  RH  042%=      5-min Rain = 0
KMC5 161649Z 21013KT 13/01 A3006 RMK A01 T01290005  RH  042%=      5-min Rain = 0
KMC5 161650Z 21012KT 13/01 A3006 RMK A01 T01300006  RH  042%=      5-min Rain = 0
KMC5 161651Z 20013KT 13/01 A3006 RMK A01 T01330007  RH  042%=      5-min Rain = 0
KMC5 161652Z 21012KT 14/01 A3005 RMK A01 T01350006  RH  041%=      5-min Rain = 0
KMC5 161653Z 20014KT 14/01 A3005 RMK A01 T01370007  RH  041%=      5-min Rain = 0
KMC5 161654Z 20013KT 14/01 A3005 RMK A01 T01370007  RH  041%=      5-min Rain = 0
KMC5 161655Z 20013KT 14/01 A3005 RMK A01 T01390007  RH  040%=      5-min Rain = 0
KMC5 161656Z 20014KT 14/01 A3005 RMK A01 T01390006  RH  040%=      5-min Rain = 0
KMC5 161657Z 20013KT 14/01 A3005 RMK A01 T01380006  RH  040%=      5-min Rain = 0
KMC5 161658Z 21014G19KT 14/01 A3005 RMK A01 T01390007  RH  041%=      5-min Rain = 0
KMC5 161659Z 20014KT 14/01 A3005 RMK A01 T01400006  RH  040%=      5-min Rain = 0
KMC5 161700Z 20014KT 14/01 A3005 RMK A01 T01400006  RH  040%=      5-min Rain = 0
KMC5 161701Z 20013KT 14/01 A3005 RMK A01 T01400006  RH  040%=      5-min Rain = 0
KMC5 161702Z 21015KT 14/01 A3005 RMK A01 T01390006  RH  040%=      5-min Rain = 0
KMC5 161703Z 21014KT 14/01 A3005 RMK A01 T01390006  RH  040%=      5-min Rain = 0
KMC5 161704Z 20013KT 14/01 A3005 RMK A01 T01390006  RH  040%=      5-min Rain = 0
KMC5 161705Z 19014KT 14/01 A3005 RMK A01 T01390007  RH  040%=      5-min Rain = 0
KMC5 161706Z 20014KT 14/01 A3005 RMK A01 T01390006  RH  040%=      5-min Rain = 0
KMC5 161707Z 20014KT 14/01 A3005 RMK A01 T01380006  RH  040%=      5-min Rain = 0
KMC5 161708Z 20012KT 14/01 A3005 RMK A01 T01380006  RH  041%=      5-min Rain = 0
KMC5 161709Z 19014KT 14/01 A3005 RMK A01 T01390007  RH  040%=      5-min Rain = 0
KMC5 161710Z 19014KT 14/01 A3005 RMK A01 T01380006  RH  040%=      5-min Rain = 0
KMC5 161711Z 20013KT 14/01 A3005 RMK A01 T01390006  RH  040%=      5-min Rain = 0
KMC5 161712Z 20013KT 14/01 A3005 RMK A01 T01380006  RH  041%=      5-min Rain = 0
KMC5 161713Z 19013KT 14/01 A3005 RMK A01 T01390007  RH  040%=      5-min Rain = 0
KMC5 161714Z 20014KT 14/01 A3005 RMK A01 T01410007  RH  040%=      5-min Rain = 0
KMC5 161715Z 20013KT 14/01 A3005 RMK A01 T01390005  RH  040%=      5-min Rain = 0
KMC5 161716Z 21013KT 14/01 A3005 RMK A01 T01380006  RH  040%=      5-min Rain = 0
KMC5 161717Z 19012KT 14/01 A3005 RMK A01 T01410008  RH  040%=      5-min Rain = 0
KMC5 161718Z 19012KT 15/01 A3004 RMK A01 T01450009  RH  040%=      5-min Rain = 0
KMC5 161719Z 19014KT 15/01 A3004 RMK A01 T01470008  RH  039%=      5-min Rain = 0
KMC5 161720Z 19012KT 15/01 A3004 RMK A01 T01450007  RH  039%=      5-min Rain = 0
KMC5 161721Z 20012KT 15/01 A3004 RMK A01 T01460008  RH  039%=      5-min Rain = 0
KMC5 161722Z 18013KT 15/01 A3004 RMK A01 T01480009  RH  039%=      5-min Rain = 0
KMC5 161723Z 19012KT 15/01 A3004 RMK A01 T01490008  RH  038%=      5-min Rain = 0
KMC5 161724Z 20012KT 15/01 A3004 RMK A01 T01490008  RH  038%=      5-min Rain = 0
KMC5 161725Z 19013KT 15/01 A3004 RMK A01 T01490008  RH  038%=      5-min Rain = 0
KMC5 161726Z 19013KT 15/01 A3004 RMK A01 T01480007  RH  038%=      5-min Rain = 0
KMC5 161727Z 20014KT 15/01 A3004 RMK A01 T01480007  RH  038%=      5-min Rain = 0
KMC5 161728Z 20015KT 15/01 A3004 RMK A01 T01470007  RH  038%=      5-min Rain = 0
KMC5 161729Z 20012KT 15/01 A3004 RMK A01 T01480006  RH  038%=      5-min Rain = 0
KMC5 161730Z 21012KT 15/01 A3004 RMK A01 T01490008  RH  038%=      5-min Rain = 0
KMC5 161731Z 20014KT 15/01 A3004 RMK A01 T01530010  RH  038%=      5-min Rain = 0
KMC5 161732Z 20015KT 15/01 A3004 RMK A01 T01530006  RH  037%=      5-min Rain = 0
KMC5 161733Z 20015KT 15/01 A3004 RMK A01 T01510005  RH  037%=      5-min Rain = 0
KMC5 161734Z 21013KT 15/01 A3004 RMK A01 T01480006  RH  038%=      5-min Rain = 0
KMC5 161735Z 21016KT 15/01 A3004 RMK A01 T01480006  RH  038%=      5-min Rain = 0
KMC5 161736Z 20016KT 15/01 A3004 RMK A01 T01480005  RH  038%=      5-min Rain = 0
KMC5 161737Z 20014KT 15/01 A3004 RMK A01 T01480006  RH  038%=      5-min Rain = 0
KMC5 161738Z 20013KT 15/01 A3004 RMK A01 T01490007  RH  038%=      5-min Rain = 0
KMC5 161739Z 21013KT 15/01 A3004 RMK A01 T01520008  RH  038%=      5-min Rain = 0
KMC5 161740Z 21011KT 15/01 A3004 RMK A01 T01520007  RH  037%=      5-min Rain = 0
KMC5 161741Z 19014KT 15/01 A3004 RMK A01 T01540009  RH  037%=      5-min Rain = 0
KMC5 161742Z 20013KT 15/01 A3004 RMK A01 T01540008  RH  037%=      5-min Rain = 0
KMC5 161743Z 19013KT 15/01 A3004 RMK A01 T01540009  RH  037%=      5-min Rain = 0
KMC5 161744Z 19015KT 15/01 A3004 RMK A01 T01540008  RH  037%=      5-min Rain = 0
KMC5 161745Z 19013KT 15/01 A3004 RMK A01 T01530007  RH  037%=      5-min Rain = 0
KMC5 161746Z 21012KT 15/01 A3004 RMK A01 T01520009  RH  038%=      5-min Rain = 0
KMC5 161747Z 20012KT 15/01 A3004 RMK A01 T01540007  RH  037%=      5-min Rain = 0
KMC5 161748Z 20013KT 16/01 A3004 RMK A01 T01550009  RH  037%=      5-min Rain = 0
KMC5 161749Z 21016KT 16/01 A3004 RMK A01 T01570007  RH  036%=      5-min Rain = 0
KMC5 161750Z 20014KT 15/01 A3004 RMK A01 T01530005  RH  036%=      5-min Rain = 0
KMC5 161751Z 21015KT 15/01 A3004 RMK A01 T01520006  RH  037%=      5-min Rain = 0
KMC5 161752Z 21013KT 15/01 A3004 RMK A01 T01520006  RH  037%=      5-min Rain = 0
KMC5 161753Z 19012KT 16/01 A3004 RMK A01 T01550009  RH  037%=      5-min Rain = 0
KMC5 161754Z 19016KT 16/01 A3004 RMK A01 T01570008  RH  036%=      5-min Rain = 0
KMC5 161755Z 19015KT 16/01 A3004 RMK A01 T01550007  RH  037%=      5-min Rain = 0
KMC5 161756Z 19015KT 15/01 A3004 RMK A01 T01540007  RH  037%=      5-min Rain = 0
KMC5 161757Z 20014KT 16/01 A3004 RMK A01 T01550008  RH  037%=      5-min Rain = 0
KMC5 161758Z 19016KT 16/01 A3003 RMK A01 T01550007  RH  037%=      5-min Rain = 0
KMC5 161759Z 20013KT 16/01 A3003 RMK A01 T01550008  RH  037%=      5-min Rain = 0
KMC5 161800Z 21014KT 16/01 A3003 RMK A01 T01570006  RH  036%=      5-min Rain = 0
KMC5 161801Z 20014KT 16/01 A3003 RMK A01 T01550007  RH  036%=      5-min Rain = 0
KMC5 161802Z 20014KT 16/01 A3003 RMK A01 T01560008  RH  037%=      5-min Rain = 0
KMC5 161803Z 18011KT 16/01 A3003 RMK A01 T01570010  RH  037%=      5-min Rain = 0
KMC5 161804Z 19011KT 16/01 A3003 RMK A01 T01580009  RH  036%=      5-min Rain = 0
KMC5 161805Z 19014KT 16/01 A3003 RMK A01 T01590008  RH  036%=      5-min Rain = 0
KMC5 161806Z 19014KT 16/01 A3003 RMK A01 T01590008  RH  036%=      5-min Rain = 0
KMC5 161807Z 19015KT 16/01 A3003 RMK A01 T01580008  RH  036%=      5-min Rain = 0
KMC5 161808Z 19015KT 16/01 A3003 RMK A01 T01570008  RH  037%=      5-min Rain = 0
KMC5 161809Z 20015KT 16/01 A3003 RMK A01 T01570007  RH  036%=      5-min Rain = 0
KMC5 161810Z 19015KT 15/01 A3003 RMK A01 T01540006  RH  036%=      5-min Rain = 0
KMC5 161811Z 19015KT 15/01 A3002 RMK A01 T01540006  RH  037%=      5-min Rain = 0
KMC5 161812Z 19016KT 16/01 A3002 RMK A01 T01560008  RH  037%=      5-min Rain = 0
KMC5 161813Z 20017KT 16/01 A3002 RMK A01 T01570008  RH  036%=      5-min Rain = 0
KMC5 161814Z 19016KT 16/01 A3002 RMK A01 T01590008  RH  036%=      5-min Rain = 0
KMC5 161815Z 19015KT 16/01 A3002 RMK A01 T01580006  RH  036%=      5-min Rain = 0
KMC5 161816Z 20012KT 16/01 A3002 RMK A01 T01580008  RH  036%=      5-min Rain = 0
KMC5 161817Z 20012KT 16/01 A3002 RMK A01 T01630010  RH  036%=      5-min Rain = 0
KMC5 161818Z 19014KT 17/01 A3002 RMK A01 T01660010  RH  035%=      5-min Rain = 0
KMC5 161819Z 20011KT 17/01 A3002 RMK A01 T01680010  RH  034%=      5-min Rain = 0
KMC5 161820Z 21011KT 17/01 A3002 RMK A01 T01700009  RH  034%=      5-min Rain = 0
KMC5 161821Z 20013G18KT 17/01 A3002 RMK A01 T01710009  RH  033%=      5-min Rain = 0
KMC5 161822Z 19016KT 17/01 A3002 RMK A01 T01700006  RH  033%=      5-min Rain = 0
KMC5 161823Z 18015KT 17/01 A3002 RMK A01 T01650005  RH  034%=      5-min Rain = 0
KMC5 161824Z 18016KT 17/01 A3002 RMK A01 T01650007  RH  034%=      5-min Rain = 0
KMC5 161825Z 18017KT 17/01 A3002 RMK A01 T01670006  RH  034%=      5-min Rain = 0
KMC5 161826Z 18016KT 17/01 A3002 RMK A01 T01670006  RH  033%=      5-min Rain = 0
KMC5 161827Z 19017KT 17/01 A3002 RMK A01 T01670005  RH  033%=      5-min Rain = 0
KMC5 161828Z 20017KT 16/00 A3002 RMK A01 T01640004  RH  034%=      5-min Rain = 0
KMC5 161829Z 20016KT 17/01 A3001 RMK A01 T01650006  RH  034%=      5-min Rain = 0
KMC5 161830Z 19014KT 17/01 A3002 RMK A01 T01670006  RH  034%=      5-min Rain = 0
KMC5 161831Z 19013KT 17/01 A3001 RMK A01 T01680007  RH  034%=      5-min Rain = 0
KMC5 161832Z 19016KT 17/01 A3001 RMK A01 T01690007  RH  033%=      5-min Rain = 0
KMC5 161833Z 19015KT 17/01 A3001 RMK A01 T01700007  RH  033%=      5-min Rain = 0
KMC5 161834Z 18018KT 17/01 A3001 RMK A01 T01680007  RH  033%=      5-min Rain = 0
KMC5 161835Z 19016KT 17/01 A3001 RMK A01 T01670006  RH  034%=      5-min Rain = 0
KMC5 161836Z 18016KT 17/01 A3001 RMK A01 T01660006  RH  034%=      5-min Rain = 0
KMC5 161837Z 20016KT 17/01 A3001 RMK A01 T01670005  RH  034%=      5-min Rain = 0
KMC5 161838Z 20017KT 17/01 A30 RMK A01 T01670006  RH  034%=      5-min Rain = 0
KMC5 161839Z 19016G21KT 17/01 A3001 RMK A01 T01660006  RH  034%=      5-min Rain = 0
KMC5 161840Z 19018KT 17/01 A3001 RMK A01 T01680006  RH  033%=      5-min Rain = 0
KMC5 161841Z 20015KT 17/01 A3001 RMK A01 T01680005  RH  033%=      5-min Rain = 0
KMC5 161842Z 18016KT 17/01 A3001 RMK A01 T01670005  RH  033%=      5-min Rain = 0
KMC5 161843Z 20015KT 17/01 A30 RMK A01 T01680006  RH  033%=      5-min Rain = 0
KMC5 161844Z 20015KT 17/00 A30 RMK A01 T01700004  RH  032%=      5-min Rain = 0
KMC5 161845Z 19012KT 17/01 A30 RMK A01 T01690005  RH  033%=      5-min Rain = 0
KMC5 161846Z 19015KT 17/01 A30 RMK A01 T01710007  RH  033%=      5-min Rain = 0
KMC5 161847Z 19015KT 17/01 A30 RMK A01 T01720005  RH  032%=      5-min Rain = 0
KMC5 161848Z 19014KT 17/00 A30 RMK A01 T01730004  RH  032%=      5-min Rain = 0
KMC5 161849Z 18014KT 17/01 A30 RMK A01 T01730006  RH  032%=      5-min Rain = 0
KMC5 161850Z 18015KT 18/01 A30 RMK A01 T01750008  RH  032%=      5-min Rain = 0
KMC5 161851Z 18016KT 18/01 A30 RMK A01 T01750006  RH  032%=      5-min Rain = 0
KMC5 161852Z 19012KT 17/00 A30 RMK A01 T01710004  RH  032%=      5-min Rain = 0
KMC5 161853Z 19013KT 17/01 A30 RMK A01 T01730009  RH  033%=      5-min Rain = 0
KMC5 161854Z 18012KT 18/01 A2999 RMK A01 T01760009  RH  032%=      5-min Rain = 0
KMC5 161855Z 19014KT 18/01 A2999 RMK A01 T01770007  RH  032%=      5-min Rain = 0
KMC5 161856Z 18014KT 18/01 A2999 RMK A01 T01760006  RH  032%=      5-min Rain = 0
KMC5 161857Z 18014KT 17/01 A2999 RMK A01 T01740006  RH  032%=      5-min Rain = 0
KMC5 161858Z 18012KT 17/01 A2999 RMK A01 T01740008  RH  033%=      5-min Rain = 0
KMC5 161859Z 20014KT 18/01 A2999 RMK A01 T01770009  RH  032%=      5-min Rain = 0
KMC5 161900Z 18016KT 18/01 A2999 RMK A01 T01760007  RH  032%=      5-min Rain = 0
KMC5 161901Z 19016KT 18/01 A2999 RMK A01 T01750006  RH  032%=      5-min Rain = 0
KMC5 161902Z 20016KT 17/01 A2999 RMK A01 T01740005  RH  032%=      5-min Rain = 0
KMC5 161903Z 20016KT 17/00 A2999 RMK A01 T01710004  RH  032%=      5-min Rain = 0
KMC5 161904Z 20017KT 17/01 A2999 RMK A01 T01710005  RH  032%=      5-min Rain = 0
KMC5 161905Z 20017KT 17/00 A2999 RMK A01 T01720004  RH  032%=      5-min Rain = 0
KMC5 161906Z 19014KT 17/00 A2999 RMK A01 T01730004  RH  032%=      5-min Rain = 0
KMC5 161907Z 18015KT 17/01 A2999 RMK A01 T01740006  RH  032%=      5-min Rain = 0
KMC5 161908Z 20014KT 18/01 A2999 RMK A01 T01770007  RH  032%=      5-min Rain = 0
KMC5 161909Z 18015KT 18/01 A2999 RMK A01 T01780006  RH  031%=      5-min Rain = 0
KMC5 161910Z 17018KT 18/01 A2998 RMK A01 T01760006  RH  032%=      5-min Rain = 0
KMC5 161911Z 19017KT 18/01 A2998 RMK A01 T01760005  RH  032%=      5-min Rain = 0
KMC5 161912Z 19018KT 18/01 A2998 RMK A01 T01760005  RH  032%=      5-min Rain = 0
KMC5 161913Z 20014KT 17/01 A2998 RMK A01 T01730005  RH  032%=      5-min Rain = 0
KMC5 161914Z 19014KT 18/01 A2998 RMK A01 T01750007  RH  032%=      5-min Rain = 0
KMC5 161915Z 19012KT 18/01 A2998 RMK A01 T01810011  RH  032%=      5-min Rain = 0
KMC5 161916Z 18016KT 18/01 A2998 RMK A01 T01840012  RH  031%=      5-min Rain = 0
KMC5 161917Z 18017KT 18/01 A2998 RMK A01 T01810009  RH  031%=      5-min Rain = 0
KMC5 161918Z 18018KT 18/01 A2998 RMK A01 T01790010  RH  032%=      5-min Rain = 0
KMC5 161919Z 18013KT 18/01 A2998 RMK A01 T01770008  RH  032%=      5-min Rain = 0
KMC5 161920Z 19016KT 18/01 A2998 RMK A01 T01780009  RH  032%=      5-min Rain = 0
KMC5 161921Z 19015KT 18/01 A2998 RMK A01 T01780006  RH  031%=      5-min Rain = 0
KMC5 161922Z 18011KT 18/01 A2998 RMK A01 T01770009  RH  032%=      5-min Rain = 0
KMC5 161923Z 17013KT 18/01 A2998 RMK A01 T01820011  RH  032%=      5-min Rain = 0
KMC5 161924Z 17015KT 18/01 A2998 RMK A01 T01840011  RH  031%=      5-min Rain = 0
KMC5 161925Z 16014KT 18/01 A2998 RMK A01 T01840010  RH  031%=      5-min Rain = 0
KMC5 161926Z 16018KT 18/01 A2997 RMK A01 T01840009  RH  031%=      5-min Rain = 0
KMC5 161927Z 17015KT 18/01 A2997 RMK A01 T01820008  RH  031%=      5-min Rain = 0
KMC5 161928Z 18012KT 18/01 A2997 RMK A01 T01810009  RH  031%=      5-min Rain = 0
KMC5 161929Z 17014G19KT 18/01 A2997 RMK A01 T01820010  RH  031%=      5-min Rain = 0
KMC5 161930Z 18017KT 19/01 A2997 RMK A01 T01850009  RH  031%=      5-min Rain = 0
KMC5 161931Z 18017KT 18/01 A2997 RMK A01 T01840008  RH  031%=      5-min Rain = 0
KMC5 161932Z 18018KT 18/01 A2997 RMK A01 T01810006  RH  031%=      5-min Rain = 0
KMC5 161933Z 19017KT 18/01 A2997 RMK A01 T01790007  RH  031%=      5-min Rain = 0
KMC5 161934Z 19018KT 18/01 A2997 RMK A01 T01800008  RH  031%=      5-min Rain = 0
KMC5 161935Z 18017KT 18/01 A2997 RMK A01 T01780006  RH  031%=      5-min Rain = 0
KMC5 161936Z 18016KT 18/01 A2997 RMK A01 T01790006  RH  031%=      5-min Rain = 0
KMC5 161937Z 19017KT 18/01 A2997 RMK A01 T01800006  RH  031%=      5-min Rain = 0
KMC5 161938Z 19015KT 18/01 A2997 RMK A01 T01810006  RH  031%=      5-min Rain = 0
KMC5 161939Z 18014G19KT 18/01 A2997 RMK A01 T01810007  RH  031%=      5-min Rain = 0
KMC5 161940Z 17016KT 18/01 A2997 RMK A01 T01820010  RH  031%=      5-min Rain = 0
KMC5 161941Z 17016G21KT 18/01 A2997 RMK A01 T01810009  RH  031%=      5-min Rain = 0
KMC5 161942Z 18019KT 18/01 A2997 RMK A01 T01810008  RH  031%=      5-min Rain = 0
KMC5 161943Z 18017KT 18/01 A2997 RMK A01 T01800008  RH  031%=      5-min Rain = 0
KMC5 161944Z 18016KT 18/01 A2997 RMK A01 T01810008  RH  031%=      5-min Rain = 0
KMC5 161945Z 19017KT 18/01 A2997 RMK A01 T01820008  RH  031%=      5-min Rain = 0
KMC5 161946Z 20015KT 18/01 A2997 RMK A01 T01810007  RH  031%=      5-min Rain = 0
KMC5 161947Z 19016KT 18/01 A2997 RMK A01 T01790006  RH  031%=      5-min Rain = 0
KMC5 161948Z 17019KT 18/01 A2997 RMK A01 T01780007  RH  032%=      5-min Rain = 0
KMC5 161949Z 18017KT 18/01 A2997 RMK A01 T01780006  RH  032%=      5-min Rain = 0
KMC5 161950Z 19016KT 18/01 A2996 RMK A01 T01770007  RH  032%=      5-min Rain = 0
KMC5 161951Z 18016G22KT 18/01 A2996 RMK A01 T01760009  RH  032%=      5-min Rain = 0
KMC5 161952Z 18019KT 18/01 A2996 RMK A01 T01790009  RH  032%=      5-min Rain = 0
KMC5 161953Z 18016KT 18/01 A2996 RMK A01 T01780008  RH  032%=      5-min Rain = 0
KMC5 161954Z 17017G22KT 18/01 A2996 RMK A01 T01780008  RH  032%=      5-min Rain = 0
KMC5 161955Z 17017G22KT 18/01 A2996 RMK A01 T01790008  RH  032%=      5-min Rain = 0
KMC5 161956Z 18016KT 18/01 A2996 RMK A01 T01790009  RH  032%=      5-min Rain = 0
KMC5 161957Z 18017KT 18/01 A2996 RMK A01 T01800009  RH  032%=      5-min Rain = 0
KMC5 161958Z 18015KT 18/01 A2996 RMK A01 T01810009  RH  032%=      5-min Rain = 0
KMC5 161959Z 16014KT 18/01 A2996 RMK A01 T01840011  RH  031%=      5-min Rain = 0
KMC5 162000Z 17019KT 19/01 A2996 RMK A01 T01850009  RH  031%=      5-min Rain = 0
KMC5 162001Z 17015KT 18/01 A2995 RMK A01 T01830008  RH  031%=      5-min Rain = 0
KMC5 162002Z 16015KT 18/01 A2995 RMK A01 T01820008  RH  031%=      5-min Rain = 0
KMC5 162003Z 17014KT 18/01 A2995 RMK A01 T01840009  RH  031%=      5-min Rain = 0
KMC5 162004Z 16015KT 19/01 A2995 RMK A01 T01860010  RH  031%=      5-min Rain = 0
KMC5 162005Z 16016KT 19/01 A2995 RMK A01 T01880010  RH  030%=      5-min Rain = 0
KMC5 162006Z 16016G21KT 19/01 A2995 RMK A01 T01870009  RH  030%=      5-min Rain = 0
KMC5 162007Z 17020KT 19/01 A2995 RMK A01 T01880010  RH  030%=      5-min Rain = 0
KMC5 162008Z 16018G23KT 19/01 A2995 RMK A01 T01870008  RH  030%=      5-min Rain = 0
KMC5 162009Z 16019KT 19/01 A2995 RMK A01 T01860008  RH  030%=      5-min Rain = 0
KMC5 162010Z 16019KT 18/01 A2995 RMK A01 T01840008  RH  031%=      5-min Rain = 0
KMC5 162011Z 17016G22KT 18/01 A2995 RMK A01 T01830008  RH  031%=      5-min Rain = 0
KMC5 162012Z 16013KT 18/01 A2995 RMK A01 T01830009  RH  031%=      5-min Rain = 0
KMC5 162013Z 17015KT 19/01 A2995 RMK A01 T01860010  RH  031%=      5-min Rain = 0
KMC5 162014Z 16012KT 19/01 A2995 RMK A01 T01860010  RH  031%=      5-min Rain = 0
KMC5 162015Z 15014KT 19/01 A2995 RMK A01 T01870011  RH  031%=      5-min Rain = 0
KMC5 162016Z 15015G20KT 19/01 A2995 RMK A01 T01880011  RH  030%=      5-min Rain = 0
KMC5 162017Z 15016KT 19/01 A2995 RMK A01 T01890010  RH  030%=      5-min Rain = 0
KMC5 162018Z 15018KT 19/01 A2995 RMK A01 T01890010  RH  030%=      5-min Rain = 0
KMC5 162019Z 15016KT 19/01 A2995 RMK A01 T01880010  RH  030%=      5-min Rain = 0
KMC5 162020Z 17017KT 19/01 A2995 RMK A01 T01880008  RH  030%=      5-min Rain = 0
KMC5 162021Z 16016KT 19/01 A2995 RMK A01 T01870009  RH  030%=      5-min Rain = 0
KMC5 162022Z 17018KT 19/01 A2995 RMK A01 T01870008  RH  030%=      5-min Rain = 0
KMC5 162023Z 15016KT 19/01 A2994 RMK A01 T01870009  RH  030%=      5-min Rain = 0
KMC5 162024Z 16013G20KT 19/01 A2994 RMK A01 T01860009  RH  031%=      5-min Rain = 0
KMC5 162025Z 16017KT 19/01 A2994 RMK A01 T01880009  RH  030%=      5-min Rain = 0
KMC5 162026Z 15016KT 19/01 A2994 RMK A01 T01870008  RH  030%=      5-min Rain = 0
KMC5 162027Z 15016KT 19/01 A2994 RMK A01 T01890008  RH  030%=      5-min Rain = 0
KMC5 162028Z 16016KT 19/01 A2994 RMK A01 T01890007  RH  029%=      5-min Rain = 0
KMC5 162029Z 17013KT 19/01 A2994 RMK A01 T01890007  RH  029%=      5-min Rain = 0
KMC5 162030Z 16019KT 19/01 A2994 RMK A01 T01900007  RH  029%=      5-min Rain = 0
KMC5 162031Z 16018KT 19/01 A2994 RMK A01 T01890006  RH  029%=      5-min Rain = 0
KMC5 162032Z 17019KT 19/01 A2994 RMK A01 T01860006  RH  030%=      5-min Rain = 0
KMC5 162033Z 16018KT 19/01 A2994 RMK A01 T01850006  RH  030%=      5-min Rain = 0
KMC5 162034Z 17020KT 18/01 A2994 RMK A01 T01840005  RH  030%=      5-min Rain = 0
KMC5 162035Z 17017KT 18/00 A2994 RMK A01 T01830004  RH  030%=      5-min Rain = 0
KMC5 162036Z 18016G21KT 18/01 A2994 RMK A01 T01830005  RH  030%=      5-min Rain = 0
KMC5 162037Z 19015KT 18/01 A2994 RMK A01 T01840007  RH  030%=      5-min Rain = 0
KMC5 162038Z 17017KT 19/01 A2994 RMK A01 T01850006  RH  030%=      5-min Rain = 0
KMC5 162039Z 17018KT 18/01 A2994 RMK A01 T01830007  RH  031%=      5-min Rain = 0
KMC5 162040Z 17018KT 18/01 A2994 RMK A01 T01810007  RH  031%=      5-min Rain = 0
KMC5 162041Z 17019KT 18/01 A2994 RMK A01 T01810007  RH  031%=      5-min Rain = 0
KMC5 162042Z 17016KT 18/01 A2994 RMK A01 T01800007  RH  031%=      5-min Rain = 0
KMC5 162043Z 17016KT 18/01 A2994 RMK A01 T01790008  RH  032%=      5-min Rain = 0
KMC5 162044Z 17018KT 18/01 A2994 RMK A01 T01780009  RH  032%=      5-min Rain = 0
KMC5 162045Z 17014KT 18/01 A2994 RMK A01 T01780009  RH  032%=      5-min Rain = 0
KMC5 162046Z 16016KT 18/01 A2994 RMK A01 T01790010  RH  032%=      5-min Rain = 0
KMC5 162047Z 17016KT 18/01 A2994 RMK A01 T01790008  RH  032%=      5-min Rain = 0
KMC5 162048Z 18015KT 18/01 A2994 RMK A01 T01790008  RH  032%=      5-min Rain = 0
KMC5 162049Z 17017KT 18/01 A2994 RMK A01 T01780008  RH  032%=      5-min Rain = 0
KMC5 162050Z 17014KT 18/01 A2994 RMK A01 T01760008  RH  032%=      5-min Rain = 0
KMC5 162051Z 16019KT 18/01 A2994 RMK A01 T01750009  RH  033%=      5-min Rain = 0
KMC5 162052Z 17016KT 17/01 A2994 RMK A01 T01740009  RH  033%=      5-min Rain = 0
KMC5 162053Z 16015KT 17/01 A2994 RMK A01 T01740010  RH  033%=      5-min Rain = 0
KMC5 162054Z 16014KT 17/01 A2993 RMK A01 T01740011  RH  033%=      5-min Rain = 0
KMC5 162055Z 16016KT 18/01 A2993 RMK A01 T01750011  RH  033%=      5-min Rain = 0
KMC5 162056Z 16017KT 18/01 A2993 RMK A01 T01750009  RH  033%=      5-min Rain = 0
KMC5 162057Z 16017KT 17/01 A2993 RMK A01 T01740009  RH  033%=      5-min Rain = 0
KMC5 162058Z 16014KT 17/01 A2993 RMK A01 T01740009  RH  033%=      5-min Rain = 0
KMC5 162059Z 16017KT 17/01 A2993 RMK A01 T01730010  RH  033%=      5-min Rain = 0
KMC5 162100Z 15015KT 17/01 A2993 RMK A01 T01730010  RH  033%=      5-min Rain = 0
KMC5 162101Z 16016KT 17/01 A2993 RMK A01 T01730010  RH  033%=      5-min Rain = 0
KMC5 162102Z 16018KT 17/01 A2993 RMK A01 T01730010  RH  033%=      5-min Rain = 0
KMC5 162103Z 16017KT 17/01 A2993 RMK A01 T01730010  RH  033%=      5-min Rain = 0
KMC5 162104Z 17014KT 17/01 A2993 RMK A01 T01720010  RH  034%=      5-min Rain = 0
KMC5 162105Z 15015KT 17/01 A2993 RMK A01 T01720011  RH  034%=      5-min Rain = 0
KMC5 162106Z 16013KT 17/01 A2993 RMK A01 T01730011  RH  034%=      5-min Rain = 0
KMC5 162107Z 16013G18KT 17/01 A2993 RMK A01 T01730011  RH  034%=      5-min Rain = 0
KMC5 162108Z 17017KT 17/01 A2993 RMK A01 T01730011  RH  033%=      5-min Rain = 0
KMC5 162109Z 17017KT 17/01 A2993 RMK A01 T01720010  RH  034%=      5-min Rain = 0
KMC5 162110Z 17018KT 17/01 A2993 RMK A01 T01720011  RH  034%=      5-min Rain = 0
KMC5 162111Z 17015KT 17/01 A2993 RMK A01 T01720010  RH  034%=      5-min Rain = 0
KMC5 162112Z 17017KT 17/01 A2993 RMK A01 T01720010  RH  034%=      5-min Rain = 0
KMC5 162113Z 17017KT 17/01 A2993 RMK A01 T01730010  RH  033%=      5-min Rain = 0
KMC5 162114Z 17018KT 17/01 A2993 RMK A01 T01730010  RH  033%=      5-min Rain = 0
KMC5 162115Z 17018KT 17/01 A2993 RMK A01 T01720009  RH  033%=      5-min Rain = 0
KMC5 162116Z 17019KT 17/01 A2993 RMK A01 T01720010  RH  033%=      5-min Rain = 0
KMC5 162117Z 17017KT 17/01 A2993 RMK A01 T01720010  RH  034%=      5-min Rain = 0
KMC5 162118Z 17019KT 17/01 A2993 RMK A01 T01720010  RH  034%=      5-min Rain = 0
KMC5 162119Z 17015G20KT 17/01 A2993 RMK A01 T01720010  RH  034%=      5-min Rain = 0
KMC5 162120Z 17019KT 17/01 A2992 RMK A01 T01720010  RH  034%=      5-min Rain = 0
KMC5 162121Z 17015KT 17/01 A2992 RMK A01 T01720011  RH  034%=      5-min Rain = 0
KMC5 162122Z 16014KT 17/01 A2992 RMK A01 T01720011  RH  034%=      5-min Rain = 0
KMC5 162123Z 16017KT 17/01 A2992 RMK A01 T01720011  RH  034%=      5-min Rain = 0
KMC5 162124Z 17017KT 17/01 A2992 RMK A01 T01720011  RH  034%=      5-min Rain = 0
KMC5 162125Z 17017KT 17/01 A2992 RMK A01 T01720010  RH  034%=      5-min Rain = 0
KMC5 162126Z 17019KT 17/01 A2992 RMK A01 T01730010  RH  033%=      5-min Rain = 0
KMC5 162127Z 16018KT 17/01 A2993 RMK A01 T01730010  RH  033%=      5-min Rain = 0
KMC5 162128Z 16020KT 17/01 A2992 RMK A01 T01720010  RH  033%=      5-min Rain = 0
KMC5 162129Z 17018KT 17/01 A2993 RMK A01 T01720009  RH  033%=      5-min Rain = 0
KMC5 162130Z 16016KT 17/01 A2993 RMK A01 T01720010  RH  034%=      5-min Rain = 0
KMC5 162131Z 17014G19KT 17/01 A2992 RMK A01 T01720011  RH  034%=      5-min Rain = 0
KMC5 162132Z 17014KT 17/01 A2992 RMK A01 T01730011  RH  034%=      5-min Rain = 0
KMC5 162133Z 17014KT 17/01 A2993 RMK A01 T01730011  RH  033%=      5-min Rain = 0
KMC5 162134Z 17014KT 17/01 A2992 RMK A01 T01730010  RH  033%=      5-min Rain = 0
KMC5 162135Z 16014KT 17/01 A2993 RMK A01 T01730011  RH  033%=      5-min Rain = 0
KMC5 162136Z 17012KT 17/01 A2993 RMK A01 T01730010  RH  033%=      5-min Rain = 0
KMC5 162137Z 16015KT 17/01 A2993 RMK A01 T01730011  RH  033%=      5-min Rain = 0
KMC5 162138Z 17017KT 17/01 A2993 RMK A01 T01730010  RH  033%=      5-min Rain = 0
KMC5 162139Z 16015KT 17/01 A2993 RMK A01 T01730010  RH  033%=      5-min Rain = 0
KMC5 162140Z 17014KT 17/01 A2993 RMK A01 T01720010  RH  033%=      5-min Rain = 0
KMC5 162141Z 16015KT 17/01 A2993 RMK A01 T01720010  RH  033%=      5-min Rain = 0
KMC5 162142Z 16017KT 17/01 A2993 RMK A01 T01730010  RH  033%=      5-min Rain = 0
KMC5 162143Z 17018KT 17/01 A2993 RMK A01 T01720010  RH  033%=      5-min Rain = 0
KMC5 162144Z 16017KT 17/01 A2993 RMK A01 T01720010  RH  034%=      5-min Rain = 0
KMC5 162145Z 17018KT 17/01 A2993 RMK A01 T01720010  RH  034%=      5-min Rain = 0
KMC5 162146Z 16015KT 17/01 A2993 RMK A01 T01710010  RH  034%=      5-min Rain = 0
KMC5 162147Z 17016KT 17/01 A2993 RMK A01 T01710010  RH  034%=      5-min Rain = 0
KMC5 162148Z 17017KT 17/01 A2993 RMK A01 T01710011  RH  034%=      5-min Rain = 0
KMC5 162149Z 17016KT 17/01 A2993 RMK A01 T01710010  RH  034%=      5-min Rain = 0
KMC5 162150Z 17016KT 17/01 A2993 RMK A01 T01700010  RH  034%=      5-min Rain = 0
KMC5 162151Z 17016KT 17/01 A2993 RMK A01 T01700010  RH  034%=      5-min Rain = 0
KMC5 162152Z 17018KT 17/01 A2993 RMK A01 T01700010  RH  034%=      5-min Rain = 0
KMC5 162153Z 16019KT 17/01 A2993 RMK A01 T01690009  RH  034%=      5-min Rain = 0
KMC5 162154Z 17018KT 17/01 A2993 RMK A01 T01690010  RH  034%=      5-min Rain = 0
KMC5 162155Z 17016KT 17/01 A2993 RMK A01 T01690010  RH  034%=      5-min Rain = 0
KMC5 162156Z 17017KT 17/01 A2993 RMK A01 T01690010  RH  034%=      5-min Rain = 0
KMC5 162157Z 16018G23KT 17/01 A2993 RMK A01 T01690010  RH  034%=      5-min Rain = 0
KMC5 162158Z 17020KT 17/01 A2992 RMK A01 T01680009  RH  034%=      5-min Rain = 0
KMC5 162159Z 17020KT 17/01 A2993 RMK A01 T01680009  RH  034%=      5-min Rain = 0
KMC5 162200Z 17020KT 17/01 A2993 RMK A01 T01680009  RH  034%=      5-min Rain = 0
KMC5 162201Z 17022KT 17/01 A2993 RMK A01 T01680009  RH  034%=      5-min Rain = 0
KMC5 162202Z 17021KT 17/01 A2993 RMK A01 T01670008  RH  034%=      5-min Rain = 0
KMC5 162203Z 17020KT 17/01 A2993 RMK A01 T01680009  RH  034%=      5-min Rain = 0
KMC5 162204Z 17020KT 17/01 A2993 RMK A01 T01680009  RH  034%=      5-min Rain = 0
KMC5 162205Z 17018KT 17/01 A2993 RMK A01 T01670009  RH  034%=      5-min Rain = 0
KMC5 162206Z 17019KT 17/01 A2993 RMK A01 T01670009  RH  034%=      5-min Rain = 0
KMC5 162207Z 16019KT 17/01 A2993 RMK A01 T01670009  RH  034%=      5-min Rain = 0
KMC5 162208Z 17019KT 17/01 A2993 RMK A01 T01670009  RH  034%=      5-min Rain = 0
KMC5 162209Z 17018KT 17/01 A2993 RMK A01 T01670009  RH  034%=      5-min Rain = 0
KMC5 162210Z 18017KT 17/01 A2993 RMK A01 T01670009  RH  034%=      5-min Rain = 0
KMC5 162211Z 17018KT 17/01 A2993 RMK A01 T01670008  RH  034%=      5-min Rain = 0
KMC5 162212Z 18016KT 17/01 A2993 RMK A01 T01670009  RH  034%=      5-min Rain = 0
KMC5 162213Z 18015KT 17/01 A2993 RMK A01 T01670009  RH  034%=      5-min Rain = 0
KMC5 162214Z 18018KT 17/01 A2993 RMK A01 T01670009  RH  034%=      5-min Rain = 0
KMC5 162215Z 17019KT 17/01 A2993 RMK A01 T01670008  RH  034%=      5-min Rain = 0
KMC5 162216Z 16017KT 17/01 A2993 RMK A01 T01670008  RH  034%=      5-min Rain = 0
KMC5 162217Z 17015KT 17/01 A2993 RMK A01 T01670008  RH  034%=      5-min Rain = 0
KMC5 162218Z 17017KT 17/01 A2993 RMK A01 T01670009  RH  034%=      5-min Rain = 0
KMC5 162219Z 18015KT 17/01 A2993 RMK A01 T01670009  RH  034%=      5-min Rain = 0
KMC5 162220Z 17015KT 17/01 A2993 RMK A01 T01670008  RH  034%=      5-min Rain = 0
KMC5 162221Z 17015KT 17/01 A2993 RMK A01 T01670008  RH  034%=      5-min Rain = 0
KMC5 162222Z 17014KT 17/01 A2994 RMK A01 T01670008  RH  034%=      5-min Rain = 0
KMC5 162223Z 17016KT 17/01 A2994 RMK A01 T01670008  RH  034%=      5-min Rain = 0
KMC5 162224Z 17014KT 17/01 A2994 RMK A01 T01670008  RH  034%=      5-min Rain = 0
KMC5 162225Z 17011KT 17/01 A2994 RMK A01 T01670009  RH  034%=      5-min Rain = 0
KMC5 162226Z 18013KT 17/01 A2994 RMK A01 T01670009  RH  034%=      5-min Rain = 0
KMC5 162227Z 17012KT 17/01 A2994 RMK A01 T01670009  RH  034%=      5-min Rain = 0
KMC5 162228Z 17012KT 17/01 A2994 RMK A01 T01670009  RH  034%=      5-min Rain = 0
KMC5 162229Z 16013KT 17/01 A2994 RMK A01 T01670010  RH  035%=      5-min Rain = 0
KMC5 162230Z 17016KT 17/01 A2994 RMK A01 T01670009  RH  034%=      5-min Rain = 0
KMC5 162231Z 16016KT 17/01 A2994 RMK A01 T01660008  RH  034%=      5-min Rain = 0
KMC5 162232Z 17014G19KT 17/01 A2994 RMK A01 T01650008  RH  034%=      5-min Rain = 0
KMC5 162233Z 17017KT 17/01 A2994 RMK A01 T01650008  RH  035%=      5-min Rain = 0
KMC5 162234Z 17014KT 17/01 A2994 RMK A01 T01650008  RH  035%=      5-min Rain = 0
KMC5 162235Z 17013KT 16/01 A2994 RMK A01 T01640009  RH  035%=      5-min Rain = 0
KMC5 162236Z 17014G19KT 16/01 A2994 RMK A01 T01640009  RH  035%=      5-min Rain = 0
KMC5 162237Z 17013KT 16/01 A2994 RMK A01 T01630009  RH  035%=      5-min Rain = 0
KMC5 162238Z 17015KT 16/01 A2994 RMK A01 T01630009  RH  035%=      5-min Rain = 0
KMC5 162239Z 17015KT 16/01 A2994 RMK A01 T01630009  RH  035%=      5-min Rain = 0
KMC5 162240Z 17016KT 16/01 A2994 RMK A01 T01620009  RH  035%=      5-min Rain = 0
KMC5 162241Z 18015KT 16/01 A2994 RMK A01 T01620009  RH  035%=      5-min Rain = 0
KMC5 162242Z 18015KT 16/01 A2994 RMK A01 T01620010  RH  036%=      5-min Rain = 0
KMC5 162243Z 18013KT 16/01 A2994 RMK A01 T01610010  RH  036%=      5-min Rain = 0
KMC5 162244Z 17012KT 16/01 A2994 RMK A01 T01610010  RH  036%=      5-min Rain = 0
KMC5 162245Z 18012KT 16/01 A2994 RMK A01 T01600010  RH  036%=      5-min Rain = 0
KMC5 162246Z 18015KT 16/01 A2994 RMK A01 T01590009  RH  036%=      5-min Rain = 0
KMC5 162247Z 18015KT 16/01 A2994 RMK A01 T01590009  RH  036%=      5-min Rain = 0
KMC5 162248Z 18013KT 16/01 A2994 RMK A01 T01590010  RH  036%=      5-min Rain = 0
KMC5 162249Z 18014KT 16/01 A2994 RMK A01 T01590010  RH  036%=      5-min Rain = 0
KMC5 162250Z 18016KT 16/01 A2994 RMK A01 T01590010  RH  036%=      5-min Rain = 0
KMC5 162251Z 18015KT 16/01 A2994 RMK A01 T01580010  RH  037%=      5-min Rain = 0
KMC5 162252Z 18013KT 16/01 A2995 RMK A01 T01580010  RH  037%=      5-min Rain = 0
KMC5 162253Z 18013KT 16/01 A2995 RMK A01 T01580011  RH  037%=      5-min Rain = 0
KMC5 162254Z 18015KT 16/01 A2995 RMK A01 T01580011  RH  037%=      5-min Rain = 0
KMC5 162255Z 17010KT 16/01 A2995 RMK A01 T01570011  RH  037%=      5-min Rain = 0
KMC5 162256Z 17014KT 16/01 A2995 RMK A01 T01570011  RH  037%=      5-min Rain = 0
KMC5 162257Z 17013KT 16/01 A2994 RMK A01 T01560012  RH  037%=      5-min Rain = 0
KMC5 162258Z 17012KT 16/01 A2994 RMK A01 T01560012  RH  038%=      5-min Rain = 0
KMC5 162259Z 17013KT 16/01 A2994 RMK A01 T01550012  RH  038%=      5-min Rain = 0
KMC5 162300Z 16012KT 16/01 A2994 RMK A01 T01560012  RH  038%=      5-min Rain = 0
KMC5 162301Z 16011G17KT 16/01 A2994 RMK A01 T01550012  RH  038%=      5-min Rain = 0
KMC5 162302Z 16013KT 15/01 A2994 RMK A01 T01540012  RH  038%=      5-min Rain = 0
KMC5 162303Z 17013KT 15/01 A2994 RMK A01 T01540013  RH  038%=      5-min Rain = 0
KMC5 162304Z 17011KT 15/01 A2995 RMK A01 T01530013  RH  038%=      5-min Rain = 0
KMC5 162305Z 17012KT 15/01 A2995 RMK A01 T01530013  RH  039%=      5-min Rain = 0
KMC5 162306Z 17012KT 15/01 A2995 RMK A01 T01520013  RH  039%=      5-min Rain = 0
KMC5 162307Z 17012KT 15/01 A2995 RMK A01 T01510013  RH  039%=      5-min Rain = 0
KMC5 162308Z 17012KT 15/01 A2995 RMK A01 T01510013  RH  039%=      5-min Rain = 0
KMC5 162309Z 17011KT 15/01 A2995 RMK A01 T01510013  RH  039%=      5-min Rain = 0
KMC5 162310Z 17011KT 15/01 A2995 RMK A01 T01500012  RH  039%=      5-min Rain = 0
KMC5 162311Z 17013KT 15/01 A2995 RMK A01 T01500013  RH  039%=      5-min Rain = 0
KMC5 162312Z 18011KT 15/01 A2995 RMK A01 T01500013  RH  039%=      5-min Rain = 0
KMC5 162313Z 18010KT 15/01 A2995 RMK A01 T01490013  RH  040%=      5-min Rain = 0
KMC5 162314Z 17009KT 15/01 A2995 RMK A01 T01480013  RH  040%=      5-min Rain = 0
KMC5 162315Z 17012KT 15/01 A2995 RMK A01 T01480013  RH  040%=      5-min Rain = 0
KMC5 162316Z 18011KT 15/01 A2995 RMK A01 T01480013  RH  040%=      5-min Rain = 0
KMC5 162317Z 18009KT 15/01 A2995 RMK A01 T01480013  RH  040%=      5-min Rain = 0
KMC5 162318Z 18012KT 15/01 A2995 RMK A01 T01470013  RH  040%=      5-min Rain = 0
KMC5 162319Z 18012KT 15/01 A2995 RMK A01 T01480013  RH  040%=      5-min Rain = 0
KMC5 162320Z 18010KT 15/01 A2995 RMK A01 T01480014  RH  040%=      5-min Rain = 0
KMC5 162321Z 18011KT 15/01 A2995 RMK A01 T01470013  RH  040%=      5-min Rain = 0
KMC5 162322Z 18012KT 15/01 A2995 RMK A01 T01470014  RH  040%=      5-min Rain = 0
KMC5 162323Z 18011KT 15/01 A2995 RMK A01 T01470014  RH  040%=      5-min Rain = 0
KMC5 162324Z 18010KT 15/01 A2995 RMK A01 T01470014  RH  040%=      5-min Rain = 0
KMC5 162325Z 18009KT 15/01 A2995 RMK A01 T01460014  RH  041%=      5-min Rain = 0
KMC5 162326Z 18011KT 15/01 A2995 RMK A01 T01460014  RH  041%=      5-min Rain = 0
KMC5 162327Z 17011KT 15/01 A2995 RMK A01 T01450014  RH  041%=      5-min Rain = 0
KMC5 162328Z 17011KT 15/01 A2995 RMK A01 T01450014  RH  041%=      5-min Rain = 0
KMC5 162329Z 17010KT 15/01 A2995 RMK A01 T01450014  RH  041%=      5-min Rain = 0
KMC5 162330Z 17010KT 15/01 A2995 RMK A01 T01450014  RH  041%=      5-min Rain = 0
KMC5 162331Z 17012KT 14/01 A2995 RMK A01 T01440014  RH  041%=      5-min Rain = 0
KMC5 162332Z 18011KT 14/01 A2995 RMK A01 T01430014  RH  041%=      5-min Rain = 0
KMC5 162333Z 17012KT 14/01 A2995 RMK A01 T01440014  RH  041%=      5-min Rain = 0
KMC5 162334Z 17010KT 15/01 A2995 RMK A01 T01450014  RH  041%=      5-min Rain = 0
KMC5 162335Z 16011KT 15/01 A2995 RMK A01 T01450014  RH  041%=      5-min Rain = 0
KMC5 162336Z 17011KT 14/01 A2995 RMK A01 T01440014  RH  041%=      5-min Rain = 0
KMC5 162337Z 17010KT 14/01 A2995 RMK A01 T01440014  RH  041%=      5-min Rain = 0
KMC5 162338Z 17009KT 14/01 A2995 RMK A01 T01440014  RH  041%=      5-min Rain = 0
KMC5 162339Z 17010KT 14/01 A2995 RMK A01 T01440014  RH  041%=      5-min Rain = 0
KMC5 162340Z 17011KT 14/02 A2995 RMK A01 T01440015  RH  041%=      5-min Rain = 0
KMC5 162341Z 17011KT 14/02 A2995 RMK A01 T01440015  RH  041%=      5-min Rain = 0
KMC5 162342Z 17010KT 15/02 A2995 RMK A01 T01450015  RH  041%=      5-min Rain = 0
KMC5 162343Z 17013KT 15/02 A2995 RMK A01 T01450015  RH  041%=      5-min Rain = 0
KMC5 162344Z 17012KT 14/02 A2996 RMK A01 T01440015  RH  041%=      5-min Rain = 0
KMC5 162345Z 18013KT 14/02 A2996 RMK A01 T01440015  RH  041%=      5-min Rain = 0
KMC5 162346Z 17011KT 14/02 A2996 RMK A01 T01440015  RH  041%=      5-min Rain = 0
KMC5 162347Z 17011KT 14/02 A2996 RMK A01 T01440015  RH  042%=      5-min Rain = 0
KMC5 162348Z 18011KT 14/02 A2996 RMK A01 T01430015  RH  042%=      5-min Rain = 0
KMC5 162349Z 17011KT 14/02 A2996 RMK A01 T01420015  RH  042%=      5-min Rain = 0
KMC5 162350Z 17011KT 14/02 A2996 RMK A01 T01420015  RH  042%=      5-min Rain = 0
KMC5 162351Z 17010KT 14/02 A2996 RMK A01 T01420015  RH  042%=      5-min Rain = 0
KMC5 162352Z 17010KT 14/02 A2995 RMK A01 T01410015  RH  042%=      5-min Rain = 0
KMC5 162353Z 17012KT 14/02 A2995 RMK A01 T01410015  RH  042%=      5-min Rain = 0
KMC5 162354Z 17011KT 14/02 A2995 RMK A01 T01410015  RH  042%=      5-min Rain = 0
KMC5 162355Z 17011KT 14/02 A2995 RMK A01 T01410015  RH  042%=      5-min Rain = 0
KMC5 162356Z 17011KT 14/02 A2995 RMK A01 T01410016  RH  042%=      5-min Rain = 0
KMC5 162357Z 17011KT 14/02 A2995 RMK A01 T01410015  RH  043%=      5-min Rain = 0
KMC5 162358Z 17012KT 14/02 A2995 RMK A01 T01410015  RH  043%=      5-min Rain = 0
KMC5 162359Z 17011KT 14/02 A2995 RMK A01 T01410015  RH  042%=      5-min Rain = 0
KMC5 170000Z 17011KT 14/02 A2995 RMK A01 T01410015  RH  043%=      5-min Rain = 0
KMC5 170001Z 17012KT 14/02 A2995 RMK A01 T01400015  RH  043%=      5-min Rain = 0
KMC5 170002Z 17011KT 14/02 A2995 RMK A01 T01400015  RH  043%=      5-min Rain = 0
KMC5 170003Z 17010KT 14/02 A2995 RMK A01 T01400015  RH  043%=      5-min Rain = 0
KMC5 170004Z 17009KT 14/02 A2996 RMK A01 T01410016  RH  043%=      5-min Rain = 0
KMC5 170005Z 17010KT 14/02 A2996 RMK A01 T01400015  RH  043%=      5-min Rain = 0
KMC5 170006Z 17009KT 14/02 A2996 RMK A01 T01400015  RH  043%=      5-min Rain = 0
KMC5 170007Z 16008KT 14/02 A2996 RMK A01 T01400015  RH  043%=      5-min Rain = 0
KMC5 170008Z 16007KT 14/02 A2996 RMK A01 T01390015  RH  043%=      5-min Rain = 0
KMC5 170009Z 16008KT 14/02 A2996 RMK A01 T01380015  RH  043%=      5-min Rain = 0
KMC5 170010Z 16007KT 14/02 A2996 RMK A01 T01380015  RH  043%=      5-min Rain = 0
KMC5 170011Z 17007KT 14/02 A2996 RMK A01 T01370015  RH  043%=      5-min Rain = 0
KMC5 170012Z 16007KT 14/02 A2996 RMK A01 T01360015  RH  043%=      5-min Rain = 0
KMC5 170013Z 17007KT 14/02 A2996 RMK A01 T01360015  RH  044%=      5-min Rain = 0
KMC5 170014Z 17008KT 14/02 A2996 RMK A01 T01360015  RH  044%=      5-min Rain = 0
KMC5 170015Z 16008KT 14/02 A2996 RMK A01 T01360015  RH  044%=      5-min Rain = 0
KMC5 170016Z 16008KT 14/02 A2996 RMK A01 T01360015  RH  044%=      5-min Rain = 0
KMC5 170017Z 16008KT 14/02 A2996 RMK A01 T01350015  RH  044%=      5-min Rain = 0
KMC5 170018Z 16009KT 13/02 A2996 RMK A01 T01340015  RH  044%=      5-min Rain = 0
KMC5 170019Z 17009KT 13/02 A2996 RMK A01 T01340015  RH  044%=      5-min Rain = 0
KMC5 170020Z 16009KT 14/02 A2996 RMK A01 T01350016  RH  044%=      5-min Rain = 0
KMC5 170021Z 16009KT 14/02 A2996 RMK A01 T01350015  RH  044%=      5-min Rain = 0
KMC5 170022Z 16010KT 14/02 A2996 RMK A01 T01350016  RH  044%=      5-min Rain = 0
KMC5 170023Z 15010KT 14/02 A2996 RMK A01 T01360016  RH  044%=      5-min Rain = 0
KMC5 170024Z 16007KT 14/02 A2996 RMK A01 T01370016  RH  044%=      5-min Rain = 0
KMC5 170025Z 15008KT 14/02 A2996 RMK A01 T01370016  RH  044%=      5-min Rain = 0
KMC5 170026Z 15007KT 14/02 A2996 RMK A01 T01360015  RH  044%=      5-min Rain = 0
KMC5 170027Z 15006KT 14/02 A2996 RMK A01 T01360015  RH  044%=      5-min Rain = 0
KMC5 170028Z 15008KT 14/02 A2996 RMK A01 T01350015  RH  044%=      5-min Rain = 0
KMC5 170029Z 15009KT 14/02 A2996 RMK A01 T01350016  RH  044%=      5-min Rain = 0
KMC5 170030Z 15008KT 14/02 A2996 RMK A01 T01350016  RH  044%=      5-min Rain = 0
KMC5 170031Z 15009KT 14/02 A2996 RMK A01 T01350016  RH  044%=      5-min Rain = 0
KMC5 170032Z 15009KT 14/02 A2996 RMK A01 T01360017  RH  044%=      5-min Rain = 0
KMC5 170033Z 16008KT 14/02 A2996 RMK A01 T01360016  RH  044%=      5-min Rain = 0
KMC5 170034Z 15009KT 14/02 A2996 RMK A01 T01350016  RH  044%=      5-min Rain = 0
KMC5 170035Z 16011KT 13/02 A2996 RMK A01 T01340016  RH  045%=      5-min Rain = 0
KMC5 170036Z 16009KT 14/02 A2996 RMK A01 T01350017  RH  045%=      5-min Rain = 0
KMC5 170037Z 15008KT 14/02 A2996 RMK A01 T01350017  RH  045%=      5-min Rain = 0
KMC5 170038Z 16009KT 13/02 A2996 RMK A01 T01340016  RH  045%=      5-min Rain = 0
KMC5 170039Z 16009KT 13/02 A2996 RMK A01 T01340016  RH  045%=      5-min Rain = 0
KMC5 170040Z 16009KT 13/02 A2996 RMK A01 T01340016  RH  045%=      5-min Rain = 0
KMC5 170041Z 16009KT 13/02 A2997 RMK A01 T01340016  RH  045%=      5-min Rain = 0
KMC5 170042Z 16010KT 13/02 A2997 RMK A01 T01340017  RH  045%=      5-min Rain = 0
KMC5 170043Z 16010KT 13/02 A2997 RMK A01 T01340017  RH  045%=      5-min Rain = 0
KMC5 170044Z 17009KT 13/02 A2997 RMK A01 T01340017  RH  045%=      5-min Rain = 0
KMC5 170045Z 16010KT 13/02 A2997 RMK A01 T01340017  RH  045%=      5-min Rain = 0
KMC5 170046Z 16010KT 13/02 A2997 RMK A01 T01340017  RH  045%=      5-min Rain = 0
KMC5 170047Z 17009KT 14/02 A2997 RMK A01 T01350018  RH  045%=      5-min Rain = 0
KMC5 170048Z 17010KT 13/02 A2997 RMK A01 T01340017  RH  045%=      5-min Rain = 0
KMC5 170049Z 17010KT 13/02 A2997 RMK A01 T01340017  RH  045%=      5-min Rain = 0
KMC5 170050Z 16010KT 13/02 A2997 RMK A01 T01330017  RH  045%=      5-min Rain = 0
KMC5 170051Z 16010KT 13/02 A2997 RMK A01 T01320017  RH  046%=      5-min Rain = 0
KMC5 170052Z 16010KT 13/02 A2997 RMK A01 T01320017  RH  046%=      5-min Rain = 0
KMC5 170053Z 17010KT 13/02 A2997 RMK A01 T01330018  RH  046%=      5-min Rain = 0
KMC5 170054Z 16008KT 13/02 A2997 RMK A01 T01320018  RH  046%=      5-min Rain = 0
KMC5 170055Z 16008KT 13/02 A2997 RMK A01 T01320018  RH  046%=      5-min Rain = 0
KMC5 170056Z 17008KT 13/02 A2997 RMK A01 T01310017  RH  046%=      5-min Rain = 0
KMC5 170057Z 16008KT 13/02 A2997 RMK A01 T01300017  RH  046%=      5-min Rain = 0
KMC5 170058Z 16009KT 13/02 A2997 RMK A01 T01290018  RH  047%=      5-min Rain = 0
KMC5 170059Z 16008KT 13/02 A2997 RMK A01 T01290018  RH  047%=      5-min Rain = 0
KMC5 170100Z 16008KT 13/02 A2997 RMK A01 T01290018  RH  047%=      5-min Rain = 0
KMC5 170101Z 17008KT 13/02 A2997 RMK A01 T01280017  RH  047%=      5-min Rain = 0
KMC5 170102Z 17008KT 13/02 A2996 RMK A01 T01270017  RH  047%=      5-min Rain = 0
KMC5 170103Z 16010KT 13/02 A2996 RMK A01 T01270018  RH  047%=      5-min Rain = 0
KMC5 170104Z 16009KT 13/02 A2996 RMK A01 T01270018  RH  047%=      5-min Rain = 0
KMC5 170105Z 17010KT 13/02 A2996 RMK A01 T01280018  RH  047%=      5-min Rain = 0
KMC5 170106Z 17009KT 13/02 A2996 RMK A01 T01280018  RH  047%=      5-min Rain = 0
KMC5 170107Z 17009KT 13/02 A2996 RMK A01 T01270018  RH  047%=      5-min Rain = 0
KMC5 170108Z 17010KT 13/02 A2996 RMK A01 T01270018  RH  047%=      5-min Rain = 0
KMC5 170109Z 17010KT 13/02 A2996 RMK A01 T01290019  RH  047%=      5-min Rain = 0
KMC5 170110Z 17010KT 13/02 A2996 RMK A01 T01290018  RH  047%=      5-min Rain = 0
KMC5 170111Z 17010KT 13/02 A2996 RMK A01 T01290018  RH  047%=      5-min Rain = 0
KMC5 170112Z 17009KT 13/02 A2996 RMK A01 T01300019  RH  047%=      5-min Rain = 0
KMC5 170113Z 18010KT 13/02 A2997 RMK A01 T01300019  RH  047%=      5-min Rain = 0
KMC5 170114Z 18011KT 13/02 A2997 RMK A01 T01300019  RH  047%=      5-min Rain = 0
KMC5 170115Z 18011KT 13/02 A2997 RMK A01 T01300019  RH  047%=      5-min Rain = 0
KMC5 170116Z 18011KT 13/02 A2997 RMK A01 T01300019  RH  047%=      5-min Rain = 0
KMC5 170117Z 18010KT 13/02 A2997 RMK A01 T01300019  RH  047%=      5-min Rain = 0
KMC5 170118Z 18011KT 13/02 A2997 RMK A01 T01290019  RH  047%=      5-min Rain = 0
KMC5 170119Z 18010KT 13/02 A2997 RMK A01 T01290019  RH  047%=      5-min Rain = 0
KMC5 170120Z 17010KT 13/02 A2997 RMK A01 T01290019  RH  047%=      5-min Rain = 0
KMC5 170121Z 18012KT 13/02 A2997 RMK A01 T01280018  RH  047%=      5-min Rain = 0
KMC5 170122Z 18011KT 13/02 A2997 RMK A01 T01280019  RH  047%=      5-min Rain = 0
KMC5 170123Z 18012KT 13/02 A2997 RMK A01 T01270019  RH  048%=      5-min Rain = 0
KMC5 170124Z 18013KT 13/02 A2997 RMK A01 T01270019  RH  048%=      5-min Rain = 0
KMC5 170125Z 18013KT 13/02 A2997 RMK A01 T01270019  RH  048%=      5-min Rain = 0
KMC5 170126Z 18011KT 13/02 A2997 RMK A01 T01280019  RH  047%=      5-min Rain = 0
KMC5 170127Z 18010KT 13/02 A2997 RMK A01 T01270019  RH  048%=      5-min Rain = 0
KMC5 170128Z 18011KT 13/02 A2996 RMK A01 T01270019  RH  048%=      5-min Rain = 0
KMC5 170129Z 18011KT 13/02 A2996 RMK A01 T01260019  RH  048%=      5-min Rain = 0
KMC5 170130Z 18011KT 13/02 A2996 RMK A01 T01260019  RH  048%=      5-min Rain = 0
KMC5 170131Z 18011KT 13/02 A2996 RMK A01 T01260019  RH  048%=      5-min Rain = 0
KMC5 170132Z 18012KT 13/02 A2996 RMK A01 T01260019  RH  048%=      5-min Rain = 0
KMC5 170133Z 18012KT 13/02 A2996 RMK A01 T01260019  RH  048%=      5-min Rain = 0
KMC5 170134Z 18011KT 13/02 A2996 RMK A01 T01260019  RH  048%=      5-min Rain = 0
KMC5 170135Z 18012KT 13/02 A2996 RMK A01 T01260020  RH  048%=      5-min Rain = 0
KMC5 170136Z 18011KT 13/02 A2996 RMK A01 T01260019  RH  048%=      5-min Rain = 0
KMC5 170137Z 18012KT 13/02 A2996 RMK A01 T01250019  RH  048%=      5-min Rain = 0
KMC5 170138Z 18012KT 13/02 A2997 RMK A01 T01250019  RH  048%=      5-min Rain = 0
KMC5 170139Z 18012KT 13/02 A2996 RMK A01 T01260019  RH  048%=      5-min Rain = 0
KMC5 170140Z 18013KT 13/02 A2997 RMK A01 T01260019  RH  048%=      5-min Rain = 0
KMC5 170141Z 18013KT 13/02 A2997 RMK A01 T01260020  RH  048%=      5-min Rain = 0
KMC5 170142Z 18013KT 13/02 A2996 RMK A01 T01260020  RH  048%=      5-min Rain = 0
KMC5 170143Z 18012KT 13/02 A2996 RMK A01 T01260020  RH  048%=      5-min Rain = 0
KMC5 170144Z 17013KT 13/02 A2996 RMK A01 T01250019  RH  048%=      5-min Rain = 0
KMC5 170145Z 18012KT 12/02 A2996 RMK A01 T01240019  RH  049%=      5-min Rain = 0
KMC5 170146Z 17012KT 12/02 A2996 RMK A01 T01240020  RH  049%=      5-min Rain = 0
KMC5 170147Z 18013KT 12/02 A2996 RMK A01 T01230019  RH  049%=      5-min Rain = 0
KMC5 170148Z 18013KT 12/02 A2996 RMK A01 T01230019  RH  049%=      5-min Rain = 0
KMC5 170149Z 18013KT 12/02 A2996 RMK A01 T01220019  RH  049%=      5-min Rain = 0
KMC5 170150Z 18013KT 12/02 A2996 RMK A01 T01220020  RH  050%=      5-min Rain = 0
KMC5 170151Z 18013KT 12/02 A2997 RMK A01 T01210019  RH  050%=      5-min Rain = 0
KMC5 170152Z 18014KT 12/02 A2997 RMK A01 T01210019  RH  050%=      5-min Rain = 0
KMC5 170153Z 18013KT 12/02 A2997 RMK A01 T01210020  RH  050%=      5-min Rain = 0
KMC5 170154Z 18013KT 12/02 A2997 RMK A01 T01200020  RH  050%=      5-min Rain = 0
KMC5 170155Z 18013KT 12/02 A2997 RMK A01 T01190020  RH  050%=      5-min Rain = 0
KMC5 170156Z 18013KT 12/02 A2997 RMK A01 T01200020  RH  051%=      5-min Rain = 0
KMC5 170157Z 18013KT 12/02 A2997 RMK A01 T01200020  RH  050%=      5-min Rain = 0
KMC5 170158Z 18013KT 12/02 A2997 RMK A01 T01200020  RH  051%=      5-min Rain = 0
KMC5 170159Z 18013KT 12/02 A2997 RMK A01 T01200020  RH  051%=      5-min Rain = 0
KMC5 170200Z 18013KT 12/02 A2997 RMK A01 T01200020  RH  050%=      5-min Rain = 0
KMC5 170201Z 18013KT 12/02 A2997 RMK A01 T01200020  RH  050%=      5-min Rain = 0
KMC5 170202Z 18015KT 12/02 A2997 RMK A01 T01200020  RH  050%=      5-min Rain = 0
KMC5 170203Z 18014KT 12/02 A2997 RMK A01 T01200020  RH  050%=      5-min Rain = 0
KMC5 170204Z 19013KT 12/02 A2997 RMK A01 T01200020  RH  050%=      5-min Rain = 0
KMC5 170205Z 18014KT 12/02 A2997 RMK A01 T01200020  RH  050%=      5-min Rain = 0
KMC5 170206Z 18013KT 12/02 A2997 RMK A01 T01210020  RH  050%=      5-min Rain = 0
KMC5 170207Z 19012KT 12/02 A2997 RMK A01 T01200020  RH  050%=      5-min Rain = 0
KMC5 170208Z 18012KT 12/02 A2997 RMK A01 T01190020  RH  051%=      5-min Rain = 0
KMC5 170209Z 18014KT 12/02 A2997 RMK A01 T01190020  RH  051%=      5-min Rain = 0
KMC5 170210Z 19012KT 12/02 A2997 RMK A01 T01190020  RH  051%=      5-min Rain = 0
KMC5 170211Z 18012KT 12/02 A2997 RMK A01 T01190020  RH  051%=      5-min Rain = 0
KMC5 170212Z 19013KT 12/02 A2997 RMK A01 T01190020  RH  051%=      5-min Rain = 0
KMC5 170213Z 19012KT 12/02 A2997 RMK A01 T01180020  RH  051%=      5-min Rain = 0
KMC5 170214Z 19012KT 12/02 A2997 RMK A01 T01170020  RH  051%=      5-min Rain = 0
KMC5 170215Z 19014KT 12/02 A2997 RMK A01 T01170021  RH  052%=      5-min Rain = 0
KMC5 170216Z 19013KT 12/02 A2997 RMK A01 T01180021  RH  051%=      5-min Rain = 0
KMC5 170217Z 19013KT 12/02 A2997 RMK A01 T01190021  RH  051%=      5-min Rain = 0
KMC5 170218Z 19013KT 12/02 A2997 RMK A01 T01180021  RH  051%=      5-min Rain = 0
KMC5 170219Z 19012KT 12/02 A2997 RMK A01 T01170020  RH  051%=      5-min Rain = 0
KMC5 170220Z 19013KT 12/02 A2997 RMK A01 T01170020  RH  052%=      5-min Rain = 0
KMC5 170221Z 19013KT 12/02 A2996 RMK A01 T01170021  RH  052%=      5-min Rain = 0
KMC5 170222Z 18013KT 12/02 A2996 RMK A01 T01160021  RH  052%=      5-min Rain = 0
KMC5 170223Z 18011KT 12/02 A2996 RMK A01 T01150020  RH  052%=      5-min Rain = 0
KMC5 170224Z 18013KT 11/02 A2996 RMK A01 T01140020  RH  053%=      5-min Rain = 0
KMC5 170225Z 18013KT 11/02 A2996 RMK A01 T01140021  RH  053%=      5-min Rain = 0
KMC5 170226Z 18013KT 11/02 A2996 RMK A01 T01140021  RH  053%=      5-min Rain = 0
KMC5 170227Z 18012KT 11/02 A2996 RMK A01 T01140021  RH  053%=      5-min Rain = 0
KMC5 170228Z 18013KT 11/02 A2996 RMK A01 T01140021  RH  053%=      5-min Rain = 0
KMC5 170229Z 18013KT 11/02 A2996 RMK A01 T01140021  RH  053%=      5-min Rain = 0
KMC5 170230Z 19013KT 12/02 A2996 RMK A01 T01150021  RH  053%=      5-min Rain = 0
KMC5 170231Z 19011KT 12/02 A2996 RMK A01 T01160021  RH  052%=      5-min Rain = 0
KMC5 170232Z 19013KT 12/02 A2996 RMK A01 T01160021  RH  052%=      5-min Rain = 0
KMC5 170233Z 19012KT 12/02 A2996 RMK A01 T01160021  RH  052%=      5-min Rain = 0
KMC5 170234Z 19012KT 12/02 A2997 RMK A01 T01160022  RH  052%=      5-min Rain = 0
KMC5 170235Z 18011KT 12/02 A2997 RMK A01 T01160021  RH  052%=      5-min Rain = 0
KMC5 170236Z 19012KT 12/02 A2997 RMK A01 T01170021  RH  052%=      5-min Rain = 0
KMC5 170237Z 18011KT 12/02 A2997 RMK A01 T01170022  RH  052%=      5-min Rain = 0
KMC5 170238Z 19011KT 12/02 A2997 RMK A01 T01170022  RH  052%=      5-min Rain = 0
KMC5 170239Z 18012KT 12/02 A2997 RMK A01 T01170022  RH  052%=      5-min Rain = 0
KMC5 170240Z 18012KT 12/02 A2997 RMK A01 T01170022  RH  052%=      5-min Rain = 0
KMC5 170241Z 18012KT 12/02 A2997 RMK A01 T01170022  RH  052%=      5-min Rain = 0
KMC5 170242Z 19012KT 12/02 A2997 RMK A01 T01170022  RH  052%=      5-min Rain = 0
KMC5 170243Z 19012KT 12/02 A2997 RMK A01 T01180023  RH  052%=      5-min Rain = 0
KMC5 170244Z 19011KT 12/02 A2997 RMK A01 T01180023  RH  052%=      5-min Rain = 0
KMC5 170245Z 19012KT 12/02 A2997 RMK A01 T01180023  RH  052%=      5-min Rain = 0
KMC5 170246Z 19012KT 12/02 A2997 RMK A01 T01180023  RH  052%=      5-min Rain = 0
KMC5 170247Z 19011KT 12/02 A2997 RMK A01 T01180023  RH  052%=      5-min Rain = 0
KMC5 170248Z 19011KT 12/02 A2997 RMK A01 T01180023  RH  052%=      5-min Rain = 0
KMC5 170249Z 19011KT 12/02 A2997 RMK A01 T01180023  RH  052%=      5-min Rain = 0
KMC5 170250Z 18011KT 12/02 A2997 RMK A01 T01180023  RH  052%=      5-min Rain = 0
KMC5 170251Z 18011KT 12/02 A2997 RMK A01 T01180023  RH  052%=      5-min Rain = 0
KMC5 170252Z 19011KT 12/02 A2997 RMK A01 T01180023  RH  052%=      5-min Rain = 0
KMC5 170253Z 18010KT 12/02 A2997 RMK A01 T01180023  RH  052%=      5-min Rain = 0
KMC5 170254Z 19010KT 12/02 A2997 RMK A01 T01170023  RH  053%=      5-min Rain = 0
KMC5 170255Z 19010KT 12/02 A2997 RMK A01 T01160023  RH  053%=      5-min Rain = 0
KMC5 170256Z 19009KT 12/02 A2998 RMK A01 T01160023  RH  053%=      5-min Rain = 0
KMC5 170257Z 19009KT 12/02 A2998 RMK A01 T01160023  RH  053%=      5-min Rain = 0
KMC5 170258Z 19009KT 12/02 A2998 RMK A01 T01160023  RH  053%=      5-min Rain = 0
KMC5 170259Z 19009KT 12/02 A2998 RMK A01 T01170024  RH  053%=      5-min Rain = 0
KMC5 170300Z 19008KT 12/02 A2998 RMK A01 T01170024  RH  053%=      5-min Rain = 0
KMC5 170301Z 18008KT 12/02 A2998 RMK A01 T01160024  RH  053%=      5-min Rain = 0
KMC5 170302Z 19007KT 12/02 A2998 RMK A01 T01150024  RH  053%=      5-min Rain = 0
KMC5 170303Z 19007KT 11/02 A2998 RMK A01 T01140023  RH  054%=      5-min Rain = 0
KMC5 170304Z 19007KT 11/02 A2998 RMK A01 T01140023  RH  054%=      5-min Rain = 0
KMC5 170305Z 19007KT 11/02 A2998 RMK A01 T01130023  RH  054%=      5-min Rain = 0
KMC5 170306Z 18008KT 11/02 A2998 RMK A01 T01120023  RH  054%=      5-min Rain = 0
KMC5 170307Z 18008KT 11/02 A2998 RMK A01 T01120023  RH  054%=      5-min Rain = 0
KMC5 170308Z 18008KT 11/02 A2998 RMK A01 T01120024  RH  055%=      5-min Rain = 0
KMC5 170309Z 18008KT 11/02 A2998 RMK A01 T01120024  RH  055%=      5-min Rain = 0
KMC5 170310Z 19008KT 11/02 A2998 RMK A01 T01120024  RH  055%=      5-min Rain = 0
KMC5 170311Z 19008KT 11/02 A2998 RMK A01 T01120024  RH  055%=      5-min Rain = 0
KMC5 170312Z 18009KT 11/02 A2998 RMK A01 T01130024  RH  054%=      5-min Rain = 0
KMC5 170313Z 18009KT 11/02 A2998 RMK A01 T01130024  RH  054%=      5-min Rain = 0
KMC5 170314Z 18009KT 11/02 A2998 RMK A01 T01130024  RH  054%=      5-min Rain = 0
KMC5 170315Z 18009KT 11/02 A2998 RMK A01 T01130024  RH  054%=      5-min Rain = 0
KMC5 170316Z 18009KT 11/02 A2998 RMK A01 T01130024  RH  054%=      5-min Rain = 0
KMC5 170317Z 18009KT 11/02 A2998 RMK A01 T01130024  RH  054%=      5-min Rain = 0
KMC5 170318Z 19009KT 11/02 A2998 RMK A01 T01130024  RH  054%=      5-min Rain = 0
KMC5 170319Z 18009KT 11/03 A2998 RMK A01 T01130025  RH  054%=      5-min Rain = 0
KMC5 170320Z 19009KT 11/03 A2998 RMK A01 T01140025  RH  054%=      5-min Rain = 0
KMC5 170321Z 18010KT 11/03 A2998 RMK A01 T01140025  RH  054%=      5-min Rain = 0
KMC5 170322Z 19010KT 12/03 A2998 RMK A01 T01150025  RH  054%=      5-min Rain = 0
KMC5 170323Z 19009KT 12/03 A2998 RMK A01 T01150025  RH  054%=      5-min Rain = 0
KMC5 170324Z 18009KT 12/03 A2998 RMK A01 T01150025  RH  054%=      5-min Rain = 0
KMC5 170325Z 19010KT 12/03 A2998 RMK A01 T01150025  RH  054%=      5-min Rain = 0
KMC5 170326Z 18009KT 12/03 A2998 RMK A01 T01150025  RH  054%=      5-min Rain = 0
KMC5 170327Z 19009KT 11/02 A2998 RMK A01 T01140024  RH  054%=      5-min Rain = 0
KMC5 170328Z 18009KT 11/03 A2998 RMK A01 T01140025  RH  054%=      5-min Rain = 0
KMC5 170329Z 18009KT 11/03 A2998 RMK A01 T01140025  RH  054%=      5-min Rain = 0
KMC5 170330Z 18009KT 11/02 A2998 RMK A01 T01130024  RH  054%=      5-min Rain = 0
KMC5 170331Z 18009KT 11/02 A2998 RMK A01 T01120024  RH  055%=      5-min Rain = 0
KMC5 170332Z 18009KT 11/03 A2998 RMK A01 T01120025  RH  055%=      5-min Rain = 0
KMC5 170333Z 18009KT 11/02 A2998 RMK A01 T01120024  RH  055%=      5-min Rain = 0
KMC5 170334Z 18009KT 11/03 A2998 RMK A01 T01130025  RH  055%=      5-min Rain = 0
KMC5 170335Z 18009KT 11/03 A2998 RMK A01 T01130025  RH  055%=      5-min Rain = 0
KMC5 170336Z 18009KT 11/03 A2998 RMK A01 T01130025  RH  055%=      5-min Rain = 0
KMC5 170337Z 18009KT 11/03 A2998 RMK A01 T01130025  RH  055%=      5-min Rain = 0
KMC5 170338Z 18009KT 11/03 A2998 RMK A01 T01130025  RH  055%=      5-min Rain = 0
KMC5 170339Z 18009KT 11/03 A2998 RMK A01 T01130025  RH  055%=      5-min Rain = 0
KMC5 170340Z 18009KT 11/03 A2998 RMK A01 T01130026  RH  055%=      5-min Rain = 0
KMC5 170341Z 18009KT 11/03 A2998 RMK A01 T01130026  RH  055%=      5-min Rain = 0
KMC5 170342Z 18010KT 11/03 A2998 RMK A01 T01130026  RH  055%=      5-min Rain = 0
KMC5 170343Z 18010KT 11/03 A2998 RMK A01 T01130026  RH  055%=      5-min Rain = 0
KMC5 170344Z 18009KT 11/03 A2998 RMK A01 T01130026  RH  055%=      5-min Rain = 0
KMC5 170345Z 18009KT 11/03 A2998 RMK A01 T01130026  RH  055%=      5-min Rain = 0
KMC5 170346Z 18008KT 11/03 A2998 RMK A01 T01120025  RH  055%=      5-min Rain = 0
KMC5 170347Z 17007KT 11/03 A2998 RMK A01 T01100025  RH  056%=      5-min Rain = 0
KMC5 170348Z 17008KT 11/02 A2998 RMK A01 T01080024  RH  056%=      5-min Rain = 0
KMC5 170349Z 17009KT 11/02 A2998 RMK A01 T01080024  RH  056%=      5-min Rain = 0
KMC5 170350Z 17009KT 11/02 A2998 RMK A01 T01070024  RH  056%=      5-min Rain = 0
KMC5 170351Z 17009KT 11/02 A2998 RMK A01 T01070024  RH  057%=      5-min Rain = 0
KMC5 170352Z 17008KT 11/02 A2998 RMK A01 T01060024  RH  057%=      5-min Rain = 0
KMC5 170353Z 17008KT 11/02 A2998 RMK A01 T01060024  RH  057%=      5-min Rain = 0
KMC5 170354Z 17009KT 11/02 A2998 RMK A01 T01050024  RH  057%=      5-min Rain = 0
KMC5 170355Z 18009KT 11/02 A2998 RMK A01 T01050024  RH  057%=      5-min Rain = 0
KMC5 170356Z 18009KT 11/03 A2998 RMK A01 T01050025  RH  058%=      5-min Rain = 0
KMC5 170357Z 18009KT 11/03 A2998 RMK A01 T01050025  RH  058%=      5-min Rain = 0
KMC5 170358Z 18008KT 11/03 A2998 RMK A01 T01050025  RH  058%=      5-min Rain = 0
KMC5 170359Z 18008KT 11/03 A2998 RMK A01 T01050025  RH  058%=      5-min Rain = 0
KMC5 170400Z 17009KT 11/03 A2998 RMK A01 T01050025  RH  058%=      5-min Rain = 0
KMC5 170401Z 18008KT 11/03 A2998 RMK A01 T01050025  RH  058%=      5-min Rain = 0
KMC5 170402Z 17008KT 11/03 A2998 RMK A01 T01060025  RH  058%=      5-min Rain = 0
KMC5 170403Z 18008KT 11/03 A2998 RMK A01 T01060025  RH  058%=      5-min Rain = 0
KMC5 170404Z 18008KT 11/03 A2998 RMK A01 T01060025  RH  058%=      5-min Rain = 0
KMC5 170405Z 18008KT 11/03 A2998 RMK A01 T01060025  RH  058%=      5-min Rain = 0
KMC5 170406Z 18008KT 11/03 A2998 RMK A01 T01060025  RH  058%=      5-min Rain = 0
KMC5 170407Z 18008KT 11/03 A2998 RMK A01 T01060026  RH  058%=      5-min Rain = 0
KMC5 170408Z 18007KT 11/03 A2998 RMK A01 T01060025  RH  058%=      5-min Rain = 0
KMC5 170409Z 18007KT 11/03 A2998 RMK A01 T01060025  RH  058%=      5-min Rain = 0
KMC5 170410Z 18006KT 11/03 A2998 RMK A01 T01060026  RH  058%=      5-min Rain = 0
KMC5 170411Z 18006KT 11/03 A2998 RMK A01 T01060026  RH  058%=      5-min Rain = 0
KMC5 170412Z 18006KT 11/03 A2998 RMK A01 T01060026  RH  058%=      5-min Rain = 0
KMC5 170413Z 18006KT 11/03 A2998 RMK A01 T01060026  RH  058%=      5-min Rain = 0
KMC5 170414Z 18006KT 11/03 A2998 RMK A01 T01060026  RH  058%=      5-min Rain = 0
KMC5 170415Z 18006KT 11/03 A2998 RMK A01 T01050025  RH  058%=      5-min Rain = 0
KMC5 170416Z 18006KT 11/03 A2998 RMK A01 T01050025  RH  058%=      5-min Rain = 0
KMC5 170417Z 18006KT 10/03 A2998 RMK A01 T01040025  RH  058%=      5-min Rain = 0
KMC5 170418Z 18006KT 10/03 A2998 RMK A01 T01040025  RH  058%=      5-min Rain = 0
KMC5 170419Z 18007KT 10/03 A2998 RMK A01 T01040025  RH  058%=      5-min Rain = 0
KMC5 170420Z 18007KT 10/03 A2998 RMK A01 T01040025  RH  058%=      5-min Rain = 0
KMC5 170421Z 18007KT 11/03 A2998 RMK A01 T01050026  RH  058%=      5-min Rain = 0
KMC5 170422Z 18007KT 11/03 A2998 RMK A01 T01050026  RH  058%=      5-min Rain = 0
KMC5 170423Z 18007KT 11/03 A2998 RMK A01 T01050026  RH  058%=      5-min Rain = 0
KMC5 170424Z 18007KT 11/03 A2998 RMK A01 T01050026  RH  058%=      5-min Rain = 0
KMC5 170425Z 18007KT 11/03 A2998 RMK A01 T01050026  RH  058%=      5-min Rain = 0
KMC5 170426Z 18007KT 11/03 A2998 RMK A01 T01050026  RH  058%=      5-min Rain = 0
KMC5 170427Z 19008KT 11/03 A2998 RMK A01 T01050026  RH  058%=      5-min Rain = 0
KMC5 170428Z 18008KT 10/03 A2998 RMK A01 T01040026  RH  058%=      5-min Rain = 0
KMC5 170429Z 18009KT 11/03 A2998 RMK A01 T01050026  RH  058%=      5-min Rain = 0
KMC5 170430Z 18008KT 11/03 A2998 RMK A01 T01060026  RH  058%=      5-min Rain = 0
KMC5 170431Z 18008KT 11/03 A2998 RMK A01 T01060026  RH  058%=      5-min Rain = 0
KMC5 170432Z 19008KT 11/03 A2998 RMK A01 T01060026  RH  058%=      5-min Rain = 0
KMC5 170433Z 19008KT 11/03 A2998 RMK A01 T01050026  RH  058%=      5-min Rain = 0
KMC5 170434Z 18008KT 10/03 A2998 RMK A01 T01040026  RH  058%=      5-min Rain = 0
KMC5 170435Z 18008KT 10/03 A2998 RMK A01 T01040026  RH  058%=      5-min Rain = 0
KMC5 170436Z 19008KT 11/03 A2998 RMK A01 T01050026  RH  058%=      5-min Rain = 0
KMC5 170437Z 19008KT 11/03 A2998 RMK A01 T01050026  RH  058%=      5-min Rain = 0
KMC5 170438Z 19008KT 11/03 A2998 RMK A01 T01050026  RH  058%=      5-min Rain = 0
KMC5 170439Z 20008KT 11/03 A2998 RMK A01 T01050026  RH  058%=      5-min Rain = 0
KMC5 170440Z 19009KT 11/03 A2998 RMK A01 T01050026  RH  058%=      5-min Rain = 0
KMC5 170441Z 19009KT 11/03 A2998 RMK A01 T01050026  RH  058%=      5-min Rain = 0
KMC5 170442Z 19009KT 11/03 A2998 RMK A01 T01060026  RH  058%=      5-min Rain = 0
KMC5 170443Z 19009KT 11/03 A2998 RMK A01 T01060026  RH  058%=      5-min Rain = 0
KMC5 170444Z 19009KT 11/03 A2998 RMK A01 T01060026  RH  058%=      5-min Rain = 0
KMC5 170445Z 18009KT 11/03 A2998 RMK A01 T01060027  RH  058%=      5-min Rain = 0
KMC5 170446Z 18009KT 11/03 A2998 RMK A01 T01050026  RH  058%=      5-min Rain = 0
KMC5 170447Z 18009KT 11/03 A2998 RMK A01 T01050026  RH  058%=      5-min Rain = 0
KMC5 170448Z 18009KT 11/03 A2998 RMK A01 T01050026  RH  058%=      5-min Rain = 0
KMC5 170449Z 18008KT 11/03 A2998 RMK A01 T01050026  RH  058%=      5-min Rain = 0
KMC5 170450Z 18008KT 10/03 A2998 RMK A01 T01040026  RH  058%=      5-min Rain = 0
KMC5 170451Z 19007KT 10/03 A2998 RMK A01 T01040026  RH  058%=      5-min Rain = 0
KMC5 170452Z 19007KT 10/03 A2998 RMK A01 T01040026  RH  059%=      5-min Rain = 0
KMC5 170453Z 19006KT 10/03 A2998 RMK A01 T01040026  RH  059%=      5-min Rain = 0
KMC5 170454Z 20005KT 10/03 A2998 RMK A01 T01030026  RH  059%=      5-min Rain = 0
KMC5 170455Z 21004KT 10/03 A2998 RMK A01 T01020026  RH  059%=      5-min Rain = 0
KMC5 170456Z 21004KT 10/03 A2999 RMK A01 T01010026  RH  059%=      5-min Rain = 0
KMC5 170457Z 20005KT 10/03 A2999 RMK A01 T01010025  RH  059%=      5-min Rain = 0
KMC5 170458Z 20004KT 10/03 A2999 RMK A01 T01010025  RH  060%=      5-min Rain = 0
KMC5 170459Z 21004KT 10/03 A2999 RMK A01 T01010026  RH  059%=      5-min Rain = 0
KMC5 170500Z 21003KT 10/03 A2999 RMK A01 T01010025  RH  059%=      5-min Rain = 0
KMC5 170501Z 22003KT 10/03 A2999 RMK A01 T01010025  RH  059%=      5-min Rain = 0
KMC5 170502Z 21003KT 10/03 A2999 RMK A01 T01010025  RH  059%=      5-min Rain = 0
KMC5 170503Z 21003KT 10/03 A2999 RMK A01 T01000025  RH  060%=      5-min Rain = 0
KMC5 170504Z 20004KT 10/03 A2999 RMK A01 T01000025  RH  060%=      5-min Rain = 0
KMC5 170505Z 20004KT 10/03 A2999 RMK A01 T01000025  RH  060%=      5-min Rain = 0
KMC5 170506Z 20004KT 10/03 A2999 RMK A01 T01010025  RH  059%=      5-min Rain = 0
KMC5 170507Z 20005KT 10/03 A2999 RMK A01 T01020026  RH  059%=      5-min Rain = 0
KMC5 170508Z 20005KT 10/03 A2999 RMK A01 T01020026  RH  059%=      5-min Rain = 0
KMC5 170509Z 19004KT 10/03 A2999 RMK A01 T01030026  RH  059%=      5-min Rain = 0
KMC5 170510Z 19004KT 10/03 A2999 RMK A01 T01030026  RH  059%=      5-min Rain = 0
KMC5 170511Z 18005KT 10/03 A2999 RMK A01 T01030026  RH  059%=      5-min Rain = 0
KMC5 170512Z 18005KT 10/03 A2999 RMK A01 T01030026  RH  059%=      5-min Rain = 0
KMC5 170513Z 18005KT 10/03 A2999 RMK A01 T01040026  RH  059%=      5-min Rain = 0
KMC5 170514Z 18005KT 10/03 A2999 RMK A01 T01030026  RH  059%=      5-min Rain = 0
KMC5 170515Z 17005KT 10/03 A2999 RMK A01 T01040027  RH  059%=      5-min Rain = 0
KMC5 170516Z 17005KT 10/03 A2999 RMK A01 T01030026  RH  059%=      5-min Rain = 0
KMC5 170517Z 16005KT 10/03 A2999 RMK A01 T01030026  RH  059%=      5-min Rain = 0
KMC5 170518Z 16005KT 10/03 A2999 RMK A01 T01030027  RH  059%=      5-min Rain = 0
KMC5 170519Z 16005KT 10/03 A2999 RMK A01 T01030027  RH  059%=      5-min Rain = 0
KMC5 170520Z 16005KT 10/03 A2999 RMK A01 T01030027  RH  059%=      5-min Rain = 0
KMC5 170521Z 16005KT 10/03 A2999 RMK A01 T01020027  RH  060%=      5-min Rain = 0
KMC5 170522Z 15004KT 10/03 A2999 RMK A01 T01020027  RH  060%=      5-min Rain = 0
KMC5 170523Z 15004KT 10/03 A2999 RMK A01 T01010027  RH  060%=      5-min Rain = 0
KMC5 170524Z 14003KT 10/03 A2999 RMK A01 T01010027  RH  060%=      5-min Rain = 0
KMC5 170525Z 14003KT 10/03 A2999 RMK A01 T01010027  RH  060%=      5-min Rain = 0
KMC5 170526Z 13002KT 10/03 A2999 RMK A01 T01000027  RH  060%=      5-min Rain = 0
KMC5 170527Z 12002KT 10/03 A2999 RMK A01 T01000026  RH  060%=      5-min Rain = 0
KMC5 170528Z 11001KT 10/03 A2999 RMK A01 T00990026  RH  060%=      5-min Rain = 0
KMC5 170529Z 09001KT 10/03 A2999 RMK A01 T00990026  RH  061%=      5-min Rain = 0
KMC5 170530Z 09000KT 10/03 A2999 RMK A01 T00970025  RH  061%=      5-min Rain = 0
KMC5 170531Z 00000KT 10/03 A2999 RMK A01 T00950025  RH  062%=      5-min Rain = 0
KMC5 170532Z 36000KT 09/03 A30 RMK A01 T00940025  RH  062%=      5-min Rain = 0
KMC5 170533Z 35001KT 09/03 A30 RMK A01 T00930025  RH  062%=      5-min Rain = 0
KMC5 170534Z 36002KT 09/03 A30 RMK A01 T00940026  RH  062%=      5-min Rain = 0
KMC5 170535Z 00002KT 09/03 A30 RMK A01 T00940026  RH  062%=      5-min Rain = 0
KMC5 170536Z 00002KT 09/03 A30 RMK A01 T00940025  RH  062%=      5-min Rain = 0
KMC5 170537Z 01001KT 09/03 A30 RMK A01 T00940026  RH  062%=      5-min Rain = 0
KMC5 170538Z 01001KT 10/03 A30 RMK A01 T00960026  RH  062%=      5-min Rain = 0
KMC5 170539Z 01001KT 10/03 A30 RMK A01 T00970027  RH  061%=      5-min Rain = 0
KMC5 170540Z 02001KT 10/03 A30 RMK A01 T00980027  RH  061%=      5-min Rain = 0
KMC5 170541Z 02001KT 10/03 A30 RMK A01 T00990027  RH  061%=      5-min Rain = 0
KMC5 170542Z 02001KT 10/03 A30 RMK A01 T01000027  RH  061%=      5-min Rain = 0
KMC5 170543Z 02000KT 10/03 A30 RMK A01 T01000027  RH  060%=      5-min Rain = 0
KMC5 170544Z 00000KT 10/03 A30 RMK A01 T01000027  RH  060%=      5-min Rain = 0
KMC5 170545Z 10000KT 10/03 A30 RMK A01 T01000027  RH  060%=      5-min Rain = 0
KMC5 170546Z 09001KT 10/03 A30 RMK A01 T01000027  RH  060%=      5-min Rain = 0
KMC5 170547Z 09001KT 10/03 A30 RMK A01 T01000027  RH  060%=      5-min Rain = 0
KMC5 170548Z 08000KT 10/03 A30 RMK A01 T01010027  RH  060%=      5-min Rain = 0
KMC5 170549Z 07001KT 10/03 A30 RMK A01 T01000027  RH  060%=      5-min Rain = 0
KMC5 170550Z 07001KT 10/03 A30 RMK A01 T01010027  RH  060%=      5-min Rain = 0
KMC5 170551Z 06001KT 10/03 A30 RMK A01 T01010027  RH  060%=      5-min Rain = 0
KMC5 170552Z 06001KT 10/03 A30 RMK A01 T01010026  RH  060%=      5-min Rain = 0
KMC5 170553Z 05001KT 10/03 A30 RMK A01 T01010027  RH  060%=      5-min Rain = 0
KMC5 170554Z 04001KT 10/03 A30 RMK A01 T01010027  RH  060%=      5-min Rain = 0
KMC5 170555Z 03001KT 10/03 A30 RMK A01 T01020027  RH  060%=      5-min Rain = 0
KMC5 170556Z 02001KT 10/03 A30 RMK A01 T01020027  RH  060%=      5-min Rain = 0
KMC5 170557Z 01001KT 10/03 A30 RMK A01 T01000027  RH  060%=      5-min Rain = 0
KMC5 170558Z 36002KT 10/03 A30 RMK A01 T00990026  RH  061%=      5-min Rain = 0
KMC5 170559Z 35002KT 10/03 A30 RMK A01 T00970026  RH  061%=      5-min Rain = 0

Page generated in 0.0791 seconds.